Wetterdaten: Donnerstag, 15.01.2015
Datum Zeit Temp. Aussen +5cm Feuchte Auss Luftdruck Regen Sonnenschein Regendauer Solar Windben
15.01.2015 00:00 4,1 C 2,8 C 86 % 1010,9 hPa 0,0 l/m 0 min 0 min 0 W/m 25,1 km/h (4 Bft)
15.01.2015 00:02 4,1 C 2,8 C 86 % 1010,8 hPa 0,0 l/m 0 min 0 min 0 W/m 29,3 km/h (5 Bft)
15.01.2015 00:06 4,1 C 2,8 C 86 % 1010,9 hPa 0,0 l/m 0 min 0 min 0 W/m 33,5 km/h (5 Bft)
15.01.2015 00:08 4,1 C 2,8 C 86 % 1010,8 hPa 0,0 l/m 0 min 0 min 0 W/m 20,9 km/h (4 Bft)
15.01.2015 00:10 4,1 C 2,8 C 85 % 1010,8 hPa 0,0 l/m 0 min 0 min 0 W/m 20,9 km/h (4 Bft)
15.01.2015 00:12 4,1 C 2,8 C 85 % 1010,8 hPa 0,0 l/m 0 min 0 min 0 W/m 23,0 km/h (4 Bft)
15.01.2015 00:14 4,2 C 2,8 C 85 % 1010,7 hPa 0,0 l/m 0 min 0 min 0 W/m 20,9 km/h (4 Bft)
15.01.2015 00:16 4,2 C 2,8 C 85 % 1010,7 hPa 0,0 l/m 0 min 0 min 0 W/m 23,0 km/h (4 Bft)
15.01.2015 00:18 4,2 C 2,8 C 85 % 1010,7 hPa 0,0 l/m 0 min 0 min 0 W/m 29,3 km/h (5 Bft)
15.01.2015 00:20 4,2 C 2,8 C 85 % 1010,6 hPa 0,0 l/m 0 min 0 min 0 W/m 16,7 km/h (3 Bft)
15.01.2015 00:22 4,2 C 2,8 C 85 % 1010,5 hPa 0,0 l/m 0 min 0 min 0 W/m 16,7 km/h (3 Bft)
15.01.2015 00:24 4,2 C 2,8 C 85 % 1010,5 hPa 0,0 l/m 0 min 0 min 0 W/m 14,6 km/h (3 Bft)
15.01.2015 00:26 4,2 C 2,8 C 85 % 1010,4 hPa 0,0 l/m 0 min 0 min 0 W/m 18,8 km/h (3 Bft)
15.01.2015 00:28 4,2 C 2,8 C 85 % 1010,3 hPa 0,0 l/m 0 min 0 min 0 W/m 20,9 km/h (4 Bft)
15.01.2015 00:30 4,2 C 2,8 C 85 % 1010,2 hPa 0,0 l/m 0 min 0 min 0 W/m 16,7 km/h (3 Bft)
15.01.2015 00:32 4,2 C 2,8 C 85 % 1010,1 hPa 0,0 l/m 0 min 0 min 0 W/m 18,8 km/h (3 Bft)
15.01.2015 00:34 4,2 C 2,8 C 85 % 1010,0 hPa 0,0 l/m 0 min 0 min 0 W/m 18,8 km/h (3 Bft)
15.01.2015 00:36 4,2 C 2,8 C 85 % 1010,0 hPa 0,0 l/m 0 min 0 min 0 W/m 20,9 km/h (4 Bft)
15.01.2015 00:38 4,2 C 2,8 C 85 % 1010,0 hPa 0,0 l/m 0 min 0 min 0 W/m 25,1 km/h (4 Bft)
15.01.2015 00:40 4,1 C 2,8 C 85 % 1009,9 hPa 0,0 l/m 0 min 0 min 0 W/m 27,2 km/h (4 Bft)
15.01.2015 00:42 4,1 C 2,8 C 85 % 1009,8 hPa 0,0 l/m 0 min 0 min 0 W/m 23,0 km/h (4 Bft)
15.01.2015 00:44 4,1 C 2,8 C 85 % 1009,7 hPa 0,0 l/m 0 min 0 min 0 W/m 20,9 km/h (4 Bft)
15.01.2015 00:46 4,1 C 2,8 C 85 % 1009,7 hPa 0,0 l/m 0 min 0 min 0 W/m 23,0 km/h (4 Bft)
15.01.2015 00:48 4,1 C 2,8 C 86 % 1009,6 hPa 0,0 l/m 0 min 0 min 0 W/m 18,8 km/h (3 Bft)
15.01.2015 00:50 4,1 C 2,8 C 85 % 1009,5 hPa 0,0 l/m 0 min 0 min 0 W/m 27,2 km/h (4 Bft)
15.01.2015 00:52 4,1 C 2,8 C 85 % 1009,4 hPa 0,0 l/m 0 min 0 min 0 W/m 18,8 km/h (3 Bft)
15.01.2015 00:54 4,1 C 2,2 C 86 % 1009,3 hPa 0,0 l/m 0 min 0 min 0 W/m 20,9 km/h (4 Bft)
15.01.2015 00:56 4,0 C 2,2 C 86 % 1009,3 hPa 0,0 l/m 0 min 0 min 0 W/m 23,0 km/h (4 Bft)
15.01.2015 00:58 4,0 C 2,2 C 86 % 1009,3 hPa 0,0 l/m 0 min 0 min 0 W/m 27,2 km/h (4 Bft)
15.01.2015 01:00 4,0 C 2,8 C 86 % 1009,2 hPa 0,0 l/m 0 min 0 min 0 W/m 23,0 km/h (4 Bft)
15.01.2015 01:02 4,0 C 2,2 C 86 % 1009,1 hPa 0,0 l/m 0 min 0 min 0 W/m 27,2 km/h (4 Bft)
15.01.2015 01:04 4,0 C 2,8 C 86 % 1009,0 hPa 0,0 l/m 0 min 0 min 0 W/m 25,1 km/h (4 Bft)
15.01.2015 01:06 4,0 C 2,8 C 86 % 1008,9 hPa 0,0 l/m 0 min 0 min 0 W/m 25,1 km/h (4 Bft)
15.01.2015 01:08 4,0 C 2,8 C 86 % 1008,8 hPa 0,0 l/m 0 min 0 min 0 W/m 27,2 km/h (4 Bft)
15.01.2015 01:10 4,0 C 2,8 C 86 % 1008,7 hPa 0,0 l/m 0 min 0 min 0 W/m 25,1 km/h (4 Bft)
15.01.2015 01:12 4,0 C 2,8 C 86 % 1008,7 hPa 0,0 l/m 0 min 0 min 0 W/m 23,0 km/h (4 Bft)
15.01.2015 01:14 4,0 C 2,8 C 86 % 1008,6 hPa 0,0 l/m 0 min 0 min 0 W/m 18,8 km/h (3 Bft)
15.01.2015 01:16 4,0 C 2,8 C 86 % 1008,6 hPa 0,0 l/m 0 min 0 min 0 W/m 20,9 km/h (4 Bft)
15.01.2015 01:18 4,0 C 2,8 C 86 % 1008,5 hPa 0,0 l/m 0 min 0 min 0 W/m 25,1 km/h (4 Bft)
15.01.2015 01:20 4,1 C 2,8 C 87 % 1008,4 hPa 0,0 l/m 0 min 0 min 0 W/m 20,9 km/h (4 Bft)
15.01.2015 01:22 4,1 C 2,8 C 87 % 1008,4 hPa 0,0 l/m 0 min 0 min 0 W/m 18,8 km/h (3 Bft)
15.01.2015 01:24 4,1 C 2,8 C 87 % 1008,3 hPa 0,0 l/m 0 min 0 min 0 W/m 25,1 km/h (4 Bft)
15.01.2015 01:26 4,1 C 2,8 C 87 % 1008,3 hPa 0,0 l/m 0 min 0 min 0 W/m 27,2 km/h (4 Bft)
15.01.2015 01:28 4,1 C 2,8 C 87 % 1008,2 hPa 0,0 l/m 0 min 0 min 0 W/m 23,0 km/h (4 Bft)
15.01.2015 01:30 4,2 C 2,8 C 87 % 1008,2 hPa 0,0 l/m 0 min 0 min 0 W/m 23,0 km/h (4 Bft)
15.01.2015 01:32 4,2 C 2,8 C 87 % 1008,1 hPa 0,0 l/m 0 min 0 min 0 W/m 29,3 km/h (5 Bft)
15.01.2015 01:34 4,2 C 2,8 C 87 % 1008,0 hPa 0,0 l/m 0 min 0 min 0 W/m 29,3 km/h (5 Bft)
15.01.2015 01:36 4,2 C 3,3 C 87 % 1007,9 hPa 0,0 l/m 0 min 0 min 0 W/m 25,1 km/h (4 Bft)
15.01.2015 01:38 4,3 C 3,3 C 87 % 1007,9 hPa 0,0 l/m 0 min 0 min 0 W/m 27,2 km/h (4 Bft)
15.01.2015 01:40 4,3 C 3,3 C 87 % 1007,8 hPa 0,0 l/m 0 min 0 min 0 W/m 27,2 km/h (4 Bft)
15.01.2015 01:42 4,3 C 3,3 C 87 % 1007,8 hPa 0,0 l/m 0 min 0 min 0 W/m 27,2 km/h (4 Bft)
15.01.2015 01:44 4,4 C 3,3 C 87 % 1007,7 hPa 0,0 l/m 0 min 0 min 0 W/m 23,0 km/h (4 Bft)
15.01.2015 01:46 4,4 C 3,3 C 87 % 1007,7 hPa 0,0 l/m 0 min 0 min 0 W/m 29,3 km/h (5 Bft)
15.01.2015 01:48 4,4 C 3,3 C 87 % 1007,6 hPa 0,0 l/m 0 min 0 min 0 W/m 29,3 km/h (5 Bft)
15.01.2015 01:50 4,5 C 3,3 C 87 % 1007,6 hPa 0,0 l/m 0 min 0 min 0 W/m 27,2 km/h (4 Bft)
15.01.2015 01:52 4,5 C 3,3 C 87 % 1007,6 hPa 0,0 l/m 0 min 0 min 0 W/m 29,3 km/h (5 Bft)
15.01.2015 01:54 4,5 C 3,3 C 87 % 1007,5 hPa 0,0 l/m 0 min 0 min 0 W/m 27,2 km/h (4 Bft)
15.01.2015 01:56 4,6 C 3,3 C 87 % 1007,5 hPa 0,0 l/m 0 min 0 min 0 W/m 23,0 km/h (4 Bft)
15.01.2015 01:58 4,6 C 3,3 C 88 % 1007,4 hPa 0,0 l/m 0 min 0 min 0 W/m 20,9 km/h (4 Bft)
15.01.2015 02:00 4,6 C 3,3 C 88 % 1007,4 hPa 0,0 l/m 0 min 0 min 0 W/m 23,0 km/h (4 Bft)
15.01.2015 02:02 4,7 C 3,3 C 88 % 1007,3 hPa 0,0 l/m 0 min 0 min 0 W/m 25,1 km/h (4 Bft)
15.01.2015 02:04 4,7 C 3,3 C 88 % 1007,3 hPa 0,0 l/m 0 min 0 min 0 W/m 25,1 km/h (4 Bft)
15.01.2015 02:06 4,7 C 3,3 C 88 % 1007,3 hPa 0,0 l/m 0 min 0 min 0 W/m 23,0 km/h (4 Bft)
15.01.2015 02:08 4,7 C 3,3 C 88 % 1007,2 hPa 0,0 l/m 0 min 0 min 0 W/m 25,1 km/h (4 Bft)
15.01.2015 02:10 4,7 C 3,3 C 88 % 1007,2 hPa 0,0 l/m 0 min 0 min 0 W/m 25,1 km/h (4 Bft)
15.01.2015 02:12 4,7 C 3,3 C 88 % 1007,1 hPa 0,0 l/m 0 min 0 min 0 W/m 23,0 km/h (4 Bft)
15.01.2015 02:14 4,8 C 3,3 C 88 % 1007,1 hPa 0,0 l/m 0 min 0 min 0 W/m 18,8 km/h (3 Bft)
15.01.2015 02:16 4,8 C 3,3 C 88 % 1007,0 hPa 0,0 l/m 0 min 0 min 0 W/m 16,7 km/h (3 Bft)
15.01.2015 02:18 4,8 C 3,3 C 88 % 1007,0 hPa 0,0 l/m 0 min 0 min 0 W/m 20,9 km/h (4 Bft)
15.01.2015 02:20 4,8 C 3,3 C 88 % 1006,9 hPa 0,0 l/m 0 min 0 min 0 W/m 18,8 km/h (3 Bft)
15.01.2015 02:22 4,8 C 3,3 C 88 % 1006,8 hPa 0,0 l/m 0 min 0 min 0 W/m 23,0 km/h (4 Bft)
15.01.2015 02:24 4,9 C 3,3 C 89 % 1006,8 hPa 0,0 l/m 0 min 0 min 0 W/m 20,9 km/h (4 Bft)
15.01.2015 02:26 4,9 C 3,3 C 89 % 1006,8 hPa 0,0 l/m 0 min 0 min 0 W/m 18,8 km/h (3 Bft)
15.01.2015 02:28 4,9 C 3,3 C 89 % 1006,7 hPa 0,0 l/m 0 min 0 min 0 W/m 18,8 km/h (3 Bft)
15.01.2015 02:30 4,9 C 3,3 C 89 % 1006,6 hPa 0,0 l/m 0 min 0 min 0 W/m 20,9 km/h (4 Bft)
15.01.2015 02:32 4,9 C 3,9 C 89 % 1006,7 hPa 0,0 l/m 0 min 0 min 0 W/m 25,1 km/h (4 Bft)
15.01.2015 02:34 5,0 C 3,9 C 89 % 1006,5 hPa 0,0 l/m 0 min 0 min 0 W/m 18,8 km/h (3 Bft)
15.01.2015 02:36 5,1 C 3,9 C 89 % 1006,4 hPa 0,0 l/m 0 min 0 min 0 W/m 18,8 km/h (3 Bft)
15.01.2015 02:38 5,1 C 3,9 C 89 % 1006,4 hPa 0,0 l/m 0 min 0 min 0 W/m 16,7 km/h (3 Bft)
15.01.2015 02:40 5,1 C 3,9 C 89 % 1006,4 hPa 0,0 l/m 0 min 0 min 0 W/m 29,3 km/h (5 Bft)
15.01.2015 02:42 5,2 C 4,4 C 89 % 1006,4 hPa 0,0 l/m 0 min 0 min 0 W/m 23,0 km/h (4 Bft)
15.01.2015 02:44 5,3 C 4,4 C 89 % 1006,3 hPa 0,0 l/m 0 min 0 min 0 W/m 41,8 km/h (6 Bft)
15.01.2015 02:46 5,4 C 4,4 C 89 % 1006,2 hPa 0,0 l/m 0 min 0 min 0 W/m 29,3 km/h (5 Bft)
15.01.2015 02:48 5,5 C 4,4 C 89 % 1006,1 hPa 0,0 l/m 0 min 0 min 0 W/m 31,4 km/h (5 Bft)
15.01.2015 02:50 5,6 C 5,0 C 89 % 1006,1 hPa 0,0 l/m 0 min 0 min 0 W/m 33,5 km/h (5 Bft)
15.01.2015 02:52 5,7 C 5,0 C 89 % 1006,0 hPa 0,0 l/m 0 min 0 min 0 W/m 20,9 km/h (4 Bft)
15.01.2015 02:54 5,8 C 5,0 C 89 % 1006,0 hPa 0,0 l/m 0 min 0 min 0 W/m 25,1 km/h (4 Bft)
15.01.2015 02:56 5,9 C 5,0 C 89 % 1005,9 hPa 0,0 l/m 0 min 0 min 0 W/m 31,4 km/h (5 Bft)
15.01.2015 02:58 5,9 C 5,0 C 89 % 1005,8 hPa 0,0 l/m 0 min 0 min 0 W/m 33,5 km/h (5 Bft)
15.01.2015 03:00 6,1 C 5,0 C 89 % 1005,8 hPa 0,0 l/m 0 min 0 min 0 W/m 20,9 km/h (4 Bft)
15.01.2015 03:02 6,1 C 5,0 C 89 % 1005,7 hPa 0,0 l/m 0 min 0 min 0 W/m 35,6 km/h (5 Bft)
15.01.2015 03:04 6,2 C 5,0 C 89 % 1005,7 hPa 0,0 l/m 0 min 0 min 0 W/m 25,1 km/h (4 Bft)
15.01.2015 03:06 6,2 C 5,0 C 89 % 1005,7 hPa 0,0 l/m 0 min 0 min 0 W/m 37,7 km/h (5 Bft)
15.01.2015 03:08 6,3 C 5,0 C 88 % 1005,6 hPa 0,0 l/m 0 min 0 min 0 W/m 25,1 km/h (4 Bft)
15.01.2015 03:10 6,4 C 5,0 C 88 % 1005,6 hPa 0,0 l/m 0 min 0 min 0 W/m 33,5 km/h (5 Bft)
15.01.2015 03:12 6,4 C 5,0 C 88 % 1005,5 hPa 0,0 l/m 0 min 0 min 0 W/m 27,2 km/h (4 Bft)
15.01.2015 03:14 6,4 C 5,0 C 88 % 1005,5 hPa 0,0 l/m 0 min 0 min 0 W/m 31,4 km/h (5 Bft)
15.01.2015 03:16 6,5 C 5,0 C 88 % 1005,4 hPa 0,0 l/m 0 min 0 min 0 W/m 29,3 km/h (5 Bft)
15.01.2015 03:18 6,6 C 5,0 C 88 % 1005,5 hPa 0,0 l/m 0 min 0 min 0 W/m 33,5 km/h (5 Bft)
15.01.2015 03:20 6,6 C 5,0 C 88 % 1005,4 hPa 0,0 l/m 0 min 0 min 0 W/m 25,1 km/h (4 Bft)
15.01.2015 03:22 6,6 C 5,0 C 88 % 1005,3 hPa 0,0 l/m 0 min 0 min 0 W/m 20,9 km/h (4 Bft)
15.01.2015 03:24 6,6 C 5,0 C 88 % 1005,2 hPa 0,0 l/m 0 min 0 min 0 W/m 27,2 km/h (4 Bft)
15.01.2015 03:26 6,7 C 5,0 C 88 % 1005,1 hPa 0,0 l/m 0 min 0 min 0 W/m 27,2 km/h (4 Bft)
15.01.2015 03:28 6,7 C 5,0 C 88 % 1005,0 hPa 0,0 l/m 0 min 0 min 0 W/m 27,2 km/h (4 Bft)
15.01.2015 03:30 6,7 C 4,4 C 88 % 1005,0 hPa 0,0 l/m 0 min 0 min 0 W/m 18,8 km/h (3 Bft)
15.01.2015 03:32 6,7 C 4,4 C 88 % 1004,9 hPa 0,0 l/m 0 min 0 min 0 W/m 25,1 km/h (4 Bft)
15.01.2015 03:34 6,7 C 4,4 C 88 % 1004,9 hPa 0,0 l/m 0 min 0 min 0 W/m 33,5 km/h (5 Bft)
15.01.2015 03:36 6,7 C 4,4 C 88 % 1004,8 hPa 0,0 l/m 0 min 0 min 0 W/m 33,5 km/h (5 Bft)
15.01.2015 03:38 6,7 C 4,4 C 88 % 1004,8 hPa 0,0 l/m 0 min 0 min 0 W/m 29,3 km/h (5 Bft)
15.01.2015 03:40 6,7 C 4,4 C 88 % 1004,8 hPa 0,0 l/m 0 min 0 min 0 W/m 33,5 km/h (5 Bft)
15.01.2015 03:42 6,7 C 4,4 C 88 % 1004,6 hPa 0,0 l/m 0 min 0 min 0 W/m 39,7 km/h (6 Bft)
15.01.2015 03:44 6,7 C 4,4 C 88 % 1004,7 hPa 0,0 l/m 0 min 0 min 0 W/m 25,1 km/h (4 Bft)
15.01.2015 03:46 6,7 C 4,4 C 88 % 1004,6 hPa 0,0 l/m 0 min 0 min 0 W/m 23,0 km/h (4 Bft)
15.01.2015 03:48 6,7 C 4,4 C 88 % 1004,6 hPa 0,0 l/m 0 min 0 min 0 W/m 29,3 km/h (5 Bft)
15.01.2015 03:50 6,7 C 4,4 C 89 % 1004,5 hPa 0,0 l/m 0 min 2 min 0 W/m 31,4 km/h (5 Bft)
15.01.2015 03:52 6,6 C 4,4 C 89 % 1004,4 hPa 0,2 l/m 0 min 2 min 0 W/m 25,1 km/h (4 Bft)
15.01.2015 03:54 6,6 C 4,4 C 89 % 1004,3 hPa 0,0 l/m 0 min 2 min 0 W/m 27,2 km/h (4 Bft)
15.01.2015 03:56 6,6 C 4,4 C 89 % 1004,3 hPa 0,0 l/m 0 min 2 min 0 W/m 27,2 km/h (4 Bft)
15.01.2015 03:58 6,6 C 4,4 C 89 % 1004,2 hPa 0,0 l/m 0 min 0 min 0 W/m 27,2 km/h (4 Bft)
15.01.2015 04:00 6,6 C 4,4 C 89 % 1004,2 hPa 0,0 l/m 0 min 0 min 0 W/m 25,1 km/h (4 Bft)
15.01.2015 04:02 6,6 C 4,4 C 89 % 1004,2 hPa 0,0 l/m 0 min 0 min 0 W/m 39,7 km/h (6 Bft)
15.01.2015 04:04 6,6 C 4,4 C 90 % 1004,1 hPa 0,0 l/m 0 min 0 min 0 W/m 31,4 km/h (5 Bft)
15.01.2015 04:06 6,5 C 4,4 C 90 % 1004,1 hPa 0,0 l/m 0 min 0 min 0 W/m 25,1 km/h (4 Bft)
15.01.2015 04:08 6,5 C 4,4 C 90 % 1004,0 hPa 0,0 l/m 0 min 0 min 0 W/m 27,2 km/h (4 Bft)
15.01.2015 04:10 6,5 C 4,4 C 90 % 1004,1 hPa 0,0 l/m 0 min 0 min 0 W/m 35,6 km/h (5 Bft)
15.01.2015 04:12 6,4 C 4,4 C 90 % 1003,9 hPa 0,0 l/m 0 min 0 min 0 W/m 37,7 km/h (5 Bft)
15.01.2015 04:14 6,4 C 4,4 C 90 % 1003,9 hPa 0,0 l/m 0 min 0 min 0 W/m 29,3 km/h (5 Bft)
15.01.2015 04:16 6,4 C 4,4 C 90 % 1003,8 hPa 0,0 l/m 0 min 0 min 0 W/m 27,2 km/h (4 Bft)
15.01.2015 04:18 6,4 C 4,4 C 90 % 1003,8 hPa 0,0 l/m 0 min 0 min 0 W/m 25,1 km/h (4 Bft)
15.01.2015 04:20 6,4 C 4,4 C 90 % 1003,7 hPa 0,0 l/m 0 min 0 min 0 W/m 31,4 km/h (5 Bft)
15.01.2015 04:22 6,4 C 4,4 C 91 % 1003,7 hPa 0,0 l/m 0 min 0 min 0 W/m 29,3 km/h (5 Bft)
15.01.2015 04:24 6,4 C 4,4 C 91 % 1003,7 hPa 0,0 l/m 0 min 0 min 0 W/m 33,5 km/h (5 Bft)
15.01.2015 04:26 6,4 C 4,4 C 91 % 1003,4 hPa 0,0 l/m 0 min 2 min 0 W/m 33,5 km/h (5 Bft)
15.01.2015 04:28 6,4 C 4,4 C 91 % 1003,5 hPa 0,0 l/m 0 min 2 min 0 W/m 16,7 km/h (3 Bft)
15.01.2015 04:30 6,4 C 4,4 C 91 % 1003,5 hPa 0,0 l/m 0 min 2 min 0 W/m 35,6 km/h (5 Bft)
15.01.2015 04:32 6,5 C 4,4 C 91 % 1003,4 hPa 0,2 l/m 0 min 2 min 0 W/m 29,3 km/h (5 Bft)
15.01.2015 04:34 6,5 C 4,4 C 91 % 1003,4 hPa 0,0 l/m 0 min 2 min 0 W/m 35,6 km/h (5 Bft)
15.01.2015 04:36 6,5 C 4,4 C 91 % 1003,3 hPa 0,0 l/m 0 min 0 min 0 W/m 35,6 km/h (5 Bft)
15.01.2015 04:38 6,5 C 4,4 C 91 % 1003,3 hPa 0,0 l/m 0 min 0 min 0 W/m 35,6 km/h (5 Bft)
15.01.2015 04:40 6,6 C 4,4 C 91 % 1003,3 hPa 0,0 l/m 0 min 0 min 0 W/m 20,9 km/h (4 Bft)
15.01.2015 04:42 6,6 C 4,4 C 91 % 1003,3 hPa 0,0 l/m 0 min 0 min 0 W/m 35,6 km/h (5 Bft)
15.01.2015 04:44 6,6 C 4,4 C 91 % 1003,2 hPa 0,0 l/m 0 min 0 min 0 W/m 27,2 km/h (4 Bft)
15.01.2015 04:46 6,6 C 4,4 C 91 % 1003,2 hPa 0,0 l/m 0 min 0 min 0 W/m 31,4 km/h (5 Bft)
15.01.2015 04:48 6,6 C 4,4 C 91 % 1003,2 hPa 0,0 l/m 0 min 0 min 0 W/m 35,6 km/h (5 Bft)
15.01.2015 04:50 6,6 C 4,4 C 91 % 1003,2 hPa 0,0 l/m 0 min 0 min 0 W/m 20,9 km/h (4 Bft)
15.01.2015 04:52 6,6 C 4,4 C 91 % 1003,1 hPa 0,0 l/m 0 min 0 min 0 W/m 29,3 km/h (5 Bft)
15.01.2015 04:54 6,7 C 4,4 C 91 % 1003,0 hPa 0,0 l/m 0 min 0 min 0 W/m 29,3 km/h (5 Bft)
15.01.2015 04:56 6,7 C 4,4 C 92 % 1003,0 hPa 0,0 l/m 0 min 0 min 0 W/m 31,4 km/h (5 Bft)
15.01.2015 04:58 6,7 C 4,4 C 92 % 1002,9 hPa 0,0 l/m 0 min 0 min 0 W/m 35,6 km/h (5 Bft)
15.01.2015 05:00 6,7 C 5,0 C 92 % 1002,8 hPa 0,0 l/m 0 min 0 min 0 W/m 23,0 km/h (4 Bft)
15.01.2015 05:02 6,8 C 5,0 C 92 % 1002,9 hPa 0,0 l/m 0 min 0 min 0 W/m 39,7 km/h (6 Bft)
15.01.2015 05:04 6,8 C 5,0 C 92 % 1002,8 hPa 0,2 l/m 0 min 0 min 0 W/m 41,8 km/h (6 Bft)
15.01.2015 05:06 6,8 C 5,0 C 92 % 1002,8 hPa 0,0 l/m 0 min 0 min 0 W/m 27,2 km/h (4 Bft)
15.01.2015 05:08 6,9 C 5,0 C 92 % 1002,6 hPa 0,0 l/m 0 min 2 min 0 W/m 33,5 km/h (5 Bft)
15.01.2015 05:10 6,9 C 5,0 C 92 % 1002,5 hPa 0,0 l/m 0 min 2 min 0 W/m 18,8 km/h (3 Bft)
15.01.2015 05:12 6,9 C 5,0 C 92 % 1002,5 hPa 0,0 l/m 0 min 2 min 0 W/m 29,3 km/h (5 Bft)
15.01.2015 05:14 6,9 C 5,0 C 92 % 1002,4 hPa 0,0 l/m 0 min 2 min 0 W/m 35,6 km/h (5 Bft)
15.01.2015 05:16 7,0 C 5,0 C 92 % 1002,3 hPa 0,0 l/m 0 min 2 min 0 W/m 29,3 km/h (5 Bft)
15.01.2015 05:18 7,0 C 5,0 C 92 % 1002,2 hPa 0,0 l/m 0 min 2 min 0 W/m 27,2 km/h (4 Bft)
15.01.2015 05:20 7,0 C 5,0 C 92 % 1002,2 hPa 0,0 l/m 0 min 2 min 0 W/m 46,0 km/h (6 Bft)
15.01.2015 05:22 7,1 C 5,0 C 92 % 1002,2 hPa 0,0 l/m 0 min 2 min 0 W/m 33,5 km/h (5 Bft)
15.01.2015 05:24 7,1 C 5,0 C 92 % 1002,1 hPa 0,0 l/m 0 min 2 min 0 W/m 37,7 km/h (5 Bft)
15.01.2015 05:26 7,1 C 5,0 C 92 % 1002,0 hPa 0,0 l/m 0 min 2 min 0 W/m 31,4 km/h (5 Bft)
15.01.2015 05:28 7,1 C 5,0 C 92 % 1002,0 hPa 0,0 l/m 0 min 2 min 0 W/m 37,7 km/h (5 Bft)
15.01.2015 05:30 7,1 C 5,0 C 92 % 1002,0 hPa 0,0 l/m 0 min 2 min 0 W/m 33,5 km/h (5 Bft)
15.01.2015 05:32 7,1 C 5,0 C 92 % 1001,9 hPa 0,2 l/m 0 min 2 min 0 W/m 31,4 km/h (5 Bft)
15.01.2015 05:34 7,2 C 5,0 C 92 % 1001,9 hPa 0,0 l/m 0 min 2 min 0 W/m 35,6 km/h (5 Bft)
15.01.2015 05:36 7,2 C 5,0 C 92 % 1001,9 hPa 0,0 l/m 0 min 2 min 0 W/m 33,5 km/h (5 Bft)
15.01.2015 05:38 7,2 C 5,0 C 92 % 1001,7 hPa 0,0 l/m 0 min 0 min 0 W/m 23,0 km/h (4 Bft)
15.01.2015 05:40 7,2 C 5,0 C 92 % 1001,7 hPa 0,0 l/m 0 min 0 min 0 W/m 35,6 km/h (5 Bft)
15.01.2015 05:42 7,2 C 5,0 C 92 % 1001,7 hPa 0,0 l/m 0 min 0 min 0 W/m 29,3 km/h (5 Bft)
15.01.2015 05:44 7,2 C 5,0 C 92 % 1001,6 hPa 0,0 l/m 0 min 0 min 0 W/m 31,4 km/h (5 Bft)
15.01.2015 05:46 7,2 C 5,0 C 92 % 1001,6 hPa 0,0 l/m 0 min 0 min 0 W/m 27,2 km/h (4 Bft)
15.01.2015 05:48 7,2 C 5,0 C 92 % 1001,6 hPa 0,0 l/m 0 min 0 min 0 W/m 27,2 km/h (4 Bft)
15.01.2015 05:50 7,2 C 5,0 C 92 % 1001,6 hPa 0,0 l/m 0 min 0 min 0 W/m 37,7 km/h (5 Bft)
15.01.2015 05:52 7,2 C 5,0 C 92 % 1001,6 hPa 0,0 l/m 0 min 0 min 0 W/m 27,2 km/h (4 Bft)
15.01.2015 05:54 7,2 C 5,0 C 92 % 1001,5 hPa 0,0 l/m 0 min 0 min 0 W/m 35,6 km/h (5 Bft)
15.01.2015 05:56 7,2 C 5,0 C 92 % 1001,4 hPa 0,0 l/m 0 min 0 min 0 W/m 37,7 km/h (5 Bft)
15.01.2015 05:58 7,2 C 5,0 C 92 % 1001,4 hPa 0,0 l/m 0 min 0 min 0 W/m 23,0 km/h (4 Bft)
15.01.2015 06:00 7,2 C 5,0 C 92 % 1001,4 hPa 0,0 l/m 0 min 0 min 0 W/m 39,7 km/h (6 Bft)
15.01.2015 06:02 7,3 C 5,0 C 92 % 1001,3 hPa 0,0 l/m 0 min 0 min 0 W/m 46,0 km/h (6 Bft)
15.01.2015 06:06 7,3 C 5,0 C 92 % 1001,3 hPa 0,0 l/m 0 min 0 min 0 W/m 35,6 km/h (5 Bft)
15.01.2015 06:08 7,3 C 5,6 C 92 % 1001,3 hPa 0,0 l/m 0 min 0 min 0 W/m 35,6 km/h (5 Bft)
15.01.2015 06:10 7,4 C 5,6 C 92 % 1001,2 hPa 0,0 l/m 0 min 0 min 0 W/m 39,7 km/h (6 Bft)
15.01.2015 06:12 7,4 C 5,6 C 92 % 1001,3 hPa 0,0 l/m 0 min 0 min 0 W/m 35,6 km/h (5 Bft)
15.01.2015 06:14 7,4 C 5,6 C 91 % 1001,3 hPa 0,0 l/m 0 min 0 min 0 W/m 27,2 km/h (4 Bft)
15.01.2015 06:16 7,4 C 5,6 C 92 % 1001,2 hPa 0,0 l/m 0 min 0 min 0 W/m 43,9 km/h (6 Bft)
15.01.2015 06:18 7,5 C 5,6 C 91 % 1001,1 hPa 0,0 l/m 0 min 0 min 0 W/m 27,2 km/h (4 Bft)
15.01.2015 06:20 7,6 C 5,6 C 91 % 1001,1 hPa 0,0 l/m 0 min 0 min 0 W/m 27,2 km/h (4 Bft)
15.01.2015 06:22 7,6 C 5,6 C 91 % 1000,9 hPa 0,0 l/m 0 min 0 min 0 W/m 43,9 km/h (6 Bft)
15.01.2015 06:24 7,6 C 5,6 C 91 % 1000,9 hPa 0,0 l/m 0 min 0 min 0 W/m 18,8 km/h (3 Bft)
15.01.2015 06:26 7,6 C 5,6 C 91 % 1000,9 hPa 0,0 l/m 0 min 0 min 0 W/m 27,2 km/h (4 Bft)
15.01.2015 06:28 7,7 C 5,6 C 91 % 1001,0 hPa 0,0 l/m 0 min 0 min 0 W/m 31,4 km/h (5 Bft)
15.01.2015 06:30 7,7 C 5,6 C 91 % 1000,8 hPa 0,0 l/m 0 min 0 min 0 W/m 37,7 km/h (5 Bft)
15.01.2015 06:32 7,8 C 5,6 C 91 % 1000,7 hPa 0,0 l/m 0 min 0 min 0 W/m 25,1 km/h (4 Bft)
15.01.2015 06:34 7,8 C 5,6 C 90 % 1000,6 hPa 0,0 l/m 0 min 0 min 0 W/m 25,1 km/h (4 Bft)
15.01.2015 06:36 7,8 C 5,6 C 90 % 1000,6 hPa 0,0 l/m 0 min 0 min 0 W/m 31,4 km/h (5 Bft)
15.01.2015 06:38 7,9 C 5,6 C 90 % 1000,7 hPa 0,0 l/m 0 min 0 min 0 W/m 31,4 km/h (5 Bft)
15.01.2015 06:40 7,9 C 5,6 C 90 % 1000,7 hPa 0,0 l/m 0 min 0 min 0 W/m 33,5 km/h (5 Bft)
15.01.2015 06:42 8,0 C 5,6 C 90 % 1000,6 hPa 0,0 l/m 0 min 0 min 0 W/m 43,9 km/h (6 Bft)
15.01.2015 06:44 8,0 C 5,6 C 89 % 1000,7 hPa 0,0 l/m 0 min 0 min 0 W/m 33,5 km/h (5 Bft)
15.01.2015 06:46 8,1 C 5,6 C 89 % 1000,7 hPa 0,0 l/m 0 min 0 min 0 W/m 31,4 km/h (5 Bft)
15.01.2015 06:48 8,1 C 5,6 C 89 % 1000,6 hPa 0,0 l/m 0 min 0 min 0 W/m 29,3 km/h (5 Bft)
15.01.2015 06:50 8,2 C 5,6 C 89 % 1000,6 hPa 0,0 l/m 0 min 0 min 0 W/m 33,5 km/h (5 Bft)
15.01.2015 06:52 8,2 C 6,1 C 89 % 1000,6 hPa 0,0 l/m 0 min 0 min 0 W/m 27,2 km/h (4 Bft)
15.01.2015 06:54 8,2 C 6,1 C 89 % 1000,5 hPa 0,0 l/m 0 min 0 min 0 W/m 27,2 km/h (4 Bft)
15.01.2015 06:56 8,3 C 6,1 C 88 % 1000,5 hPa 0,0 l/m 0 min 0 min 0 W/m 37,7 km/h (5 Bft)
15.01.2015 06:58 8,3 C 5,6 C 88 % 1000,5 hPa 0,0 l/m 0 min 0 min 0 W/m 35,6 km/h (5 Bft)
15.01.2015 07:00 8,3 C 5,6 C 88 % 1000,4 hPa 0,0 l/m 0 min 0 min 0 W/m 23,0 km/h (4 Bft)
15.01.2015 07:02 8,4 C 6,1 C 88 % 1000,5 hPa 0,0 l/m 0 min 0 min 0 W/m 39,7 km/h (6 Bft)
15.01.2015 07:04 8,4 C 6,1 C 88 % 1000,5 hPa 0,0 l/m 0 min 0 min 0 W/m 33,5 km/h (5 Bft)
15.01.2015 07:06 8,4 C 6,1 C 88 % 1000,5 hPa 0,0 l/m 0 min 0 min 0 W/m 35,6 km/h (5 Bft)
15.01.2015 07:08 8,5 C 6,1 C 88 % 1000,4 hPa 0,0 l/m 0 min 0 min 0 W/m 29,3 km/h (5 Bft)
15.01.2015 07:10 8,6 C 6,1 C 88 % 1000,4 hPa 0,0 l/m 0 min 0 min 0 W/m 35,6 km/h (5 Bft)
15.01.2015 07:16 8,6 C 6,1 C 87 % 1000,4 hPa 0,0 l/m 0 min 0 min 0 W/m 41,8 km/h (6 Bft)
15.01.2015 07:18 8,7 C 6,1 C 87 % 1000,5 hPa 0,0 l/m 0 min 0 min 0 W/m 37,7 km/h (5 Bft)
15.01.2015 07:20 8,7 C 6,1 C 87 % 1000,4 hPa 0,0 l/m 0 min 2 min 0 W/m 37,7 km/h (5 Bft)
15.01.2015 07:22 8,7 C 6,1 C 87 % 1000,3 hPa 0,0 l/m 0 min 2 min 0 W/m 46,0 km/h (6 Bft)
15.01.2015 07:24 8,7 C 6,1 C 87 % 1000,3 hPa 0,0 l/m 0 min 0 min 0 W/m 35,6 km/h (5 Bft)
15.01.2015 07:26 8,7 C 6,1 C 87 % 1000,3 hPa 0,0 l/m 0 min 2 min 0 W/m 37,7 km/h (5 Bft)
15.01.2015 07:28 8,8 C 6,1 C 87 % 1000,3 hPa 0,0 l/m 0 min 2 min 0 W/m 46,0 km/h (6 Bft)
15.01.2015 07:30 8,8 C 6,1 C 87 % 1000,1 hPa 0,0 l/m 0 min 2 min 0 W/m 25,1 km/h (4 Bft)
15.01.2015 07:32 8,8 C 6,1 C 87 % 1000,2 hPa 0,0 l/m 0 min 2 min 0 W/m 41,8 km/h (6 Bft)
15.01.2015 07:34 8,8 C 6,1 C 87 % 1000,1 hPa 0,0 l/m 0 min 2 min 0 W/m 41,8 km/h (6 Bft)
15.01.2015 07:36 8,8 C 6,1 C 87 % 1000,0 hPa 0,0 l/m 0 min 2 min 0 W/m 29,3 km/h (5 Bft)
15.01.2015 07:38 8,8 C 6,1 C 87 % 1000,0 hPa 0,0 l/m 0 min 2 min 0 W/m 20,9 km/h (4 Bft)
15.01.2015 07:40 8,8 C 6,1 C 87 % 1000,1 hPa 0,2 l/m 0 min 2 min 0 W/m 37,7 km/h (5 Bft)
15.01.2015 07:42 8,8 C 6,1 C 87 % 1000,2 hPa 0,0 l/m 0 min 2 min 0 W/m 52,3 km/h (7 Bft)
15.01.2015 07:44 8,9 C 6,1 C 87 % 1000,2 hPa 0,0 l/m 0 min 2 min 0 W/m 37,7 km/h (5 Bft)
15.01.2015 07:46 8,9 C 6,7 C 87 % 1000,1 hPa 0,0 l/m 0 min 2 min 0 W/m 35,6 km/h (5 Bft)
15.01.2015 07:48 8,9 C 6,7 C 87 % 1000,1 hPa 0,0 l/m 0 min 2 min 0 W/m 43,9 km/h (6 Bft)
15.01.2015 07:50 8,9 C 6,7 C 87 % 1000,1 hPa 0,0 l/m 0 min 0 min 0 W/m 35,6 km/h (5 Bft)
15.01.2015 07:52 8,9 C 6,7 C 87 % 1000,0 hPa 0,0 l/m 0 min 0 min 0 W/m 35,6 km/h (5 Bft)
15.01.2015 07:55 8,9 C 6,7 C 87 % 1000,0 hPa 0,0 l/m 0 min 0 min 0 W/m 48,1 km/h (6 Bft)
15.01.2015 07:58 9,0 C 6,7 C 86 % 1000,0 hPa 0,0 l/m 0 min 0 min 0 W/m 35,6 km/h (5 Bft)
15.01.2015 08:00 9,0 C 6,7 C 86 % 1000,0 hPa 0,0 l/m 0 min 0 min 0 W/m 35,6 km/h (5 Bft)
15.01.2015 08:02 9,0 C 6,7 C 86 % 999,9 hPa 0,0 l/m 0 min 0 min 0 W/m 39,7 km/h (6 Bft)
15.01.2015 08:04 9,1 C 6,7 C 86 % 999,9 hPa 0,0 l/m 0 min 2 min 0 W/m 29,3 km/h (5 Bft)
15.01.2015 08:06 9,1 C 7,2 C 86 % 1000,0 hPa 0,0 l/m 0 min 2 min 0 W/m 46,0 km/h (6 Bft)
15.01.2015 08:08 9,1 C 7,2 C 86 % 999,9 hPa 0,0 l/m 0 min 2 min 0 W/m 31,4 km/h (5 Bft)
15.01.2015 08:10 9,1 C 6,7 C 86 % 999,8 hPa 0,0 l/m 0 min 2 min 0 W/m 46,0 km/h (6 Bft)
15.01.2015 08:12 9,2 C 7,2 C 85 % 999,8 hPa 0,0 l/m 0 min 0 min 0 W/m 46,0 km/h (6 Bft)
15.01.2015 08:14 9,2 C 7,2 C 85 % 999,8 hPa 0,0 l/m 0 min 2 min 0 W/m 23,0 km/h (4 Bft)
15.01.2015 08:16 9,2 C 7,2 C 85 % 999,9 hPa 0,0 l/m 0 min 2 min 0 W/m 33,5 km/h (5 Bft)
15.01.2015 08:18 9,2 C 6,7 C 85 % 999,8 hPa 0,0 l/m 0 min 2 min 0 W/m 35,6 km/h (5 Bft)
15.01.2015 08:20 9,2 C 6,7 C 85 % 999,9 hPa 0,0 l/m 0 min 2 min 0 W/m 39,7 km/h (6 Bft)
15.01.2015 08:22 9,2 C 6,7 C 85 % 999,7 hPa 0,0 l/m 0 min 2 min 0 W/m 41,8 km/h (6 Bft)
15.01.2015 08:24 9,2 C 6,7 C 85 % 999,7 hPa 0,0 l/m 0 min 2 min 0 W/m 37,7 km/h (5 Bft)
15.01.2015 08:26 9,2 C 6,7 C 85 % 999,8 hPa 0,0 l/m 0 min 2 min 0 W/m 33,5 km/h (5 Bft)
15.01.2015 08:28 9,2 C 6,7 C 85 % 999,7 hPa 0,0 l/m 0 min 2 min 0 W/m 33,5 km/h (5 Bft)
15.01.2015 08:30 9,2 C 6,7 C 85 % 999,7 hPa 0,0 l/m 0 min 2 min 0 W/m 35,6 km/h (5 Bft)
15.01.2015 08:32 9,2 C 6,7 C 85 % 999,7 hPa 0,0 l/m 0 min 0 min 0 W/m 43,9 km/h (6 Bft)
15.01.2015 08:34 9,2 C 6,7 C 85 % 999,6 hPa 0,0 l/m 0 min 0 min 0 W/m 35,6 km/h (5 Bft)
15.01.2015 08:36 9,2 C 6,7 C 85 % 999,7 hPa 0,0 l/m 0 min 0 min 0 W/m 46,0 km/h (6 Bft)
15.01.2015 08:38 9,2 C 6,7 C 85 % 999,6 hPa 0,0 l/m 0 min 0 min 0 W/m 52,3 km/h (7 Bft)
15.01.2015 08:40 9,2 C 7,2 C 85 % 999,5 hPa 0,0 l/m 0 min 0 min 0 W/m 29,3 km/h (5 Bft)
15.01.2015 08:42 9,2 C 7,2 C 85 % 999,5 hPa 0,0 l/m 0 min 2 min 0 W/m 50,2 km/h (7 Bft)
15.01.2015 08:44 9,3 C 7,2 C 85 % 999,4 hPa 0,0 l/m 0 min 0 min 2 W/m 41,8 km/h (6 Bft)
15.01.2015 08:46 9,2 C 7,2 C 85 % 999,4 hPa 0,0 l/m 0 min 0 min 5 W/m 48,1 km/h (6 Bft)
15.01.2015 08:48 9,3 C 7,2 C 85 % 999,4 hPa 0,0 l/m 0 min 0 min 5 W/m 37,7 km/h (5 Bft)
15.01.2015 08:50 9,3 C 7,2 C 85 % 999,4 hPa 0,0 l/m 0 min 0 min 7 W/m 27,2 km/h (4 Bft)
15.01.2015 08:52 9,3 C 7,2 C 85 % 999,5 hPa 0,0 l/m 0 min 0 min 7 W/m 31,4 km/h (5 Bft)
15.01.2015 08:54 9,3 C 7,2 C 85 % 999,3 hPa 0,0 l/m 0 min 0 min 7 W/m 18,8 km/h (3 Bft)
15.01.2015 08:56 9,3 C 7,2 C 85 % 999,3 hPa 0,0 l/m 0 min 0 min 7 W/m 39,7 km/h (6 Bft)
15.01.2015 08:58 9,3 C 7,2 C 85 % 999,3 hPa 0,0 l/m 0 min 0 min 8 W/m 31,4 km/h (5 Bft)
15.01.2015 09:00 9,3 C 7,2 C 84 % 999,4 hPa 0,0 l/m 0 min 0 min 8 W/m 43,9 km/h (6 Bft)
15.01.2015 09:02 9,3 C 7,2 C 84 % 999,4 hPa 0,0 l/m 0 min 0 min 8 W/m 31,4 km/h (5 Bft)
15.01.2015 09:04 9,3 C 7,8 C 84 % 999,3 hPa 0,0 l/m 0 min 0 min 9 W/m 27,2 km/h (4 Bft)
15.01.2015 09:06 9,3 C 7,8 C 84 % 999,5 hPa 0,0 l/m 0 min 0 min 11 W/m 35,6 km/h (5 Bft)
15.01.2015 09:08 9,4 C 7,8 C 84 % 999,4 hPa 0,0 l/m 0 min 0 min 12 W/m 43,9 km/h (6 Bft)
15.01.2015 09:10 9,4 C 7,8 C 83 % 999,3 hPa 0,0 l/m 0 min 0 min 12 W/m 31,4 km/h (5 Bft)
15.01.2015 09:12 9,4 C 7,8 C 83 % 999,5 hPa 0,0 l/m 0 min 0 min 11 W/m 39,7 km/h (6 Bft)
15.01.2015 09:14 9,4 C 7,8 C 83 % 999,5 hPa 0,0 l/m 0 min 0 min 11 W/m 31,4 km/h (5 Bft)
15.01.2015 09:16 9,5 C 7,8 C 83 % 999,5 hPa 0,0 l/m 0 min 0 min 12 W/m 60,7 km/h (7 Bft)
15.01.2015 09:18 9,6 C 7,8 C 82 % 999,5 hPa 0,0 l/m 0 min 0 min 11 W/m 37,7 km/h (5 Bft)
15.01.2015 09:20 9,6 C 7,8 C 82 % 999,6 hPa 0,0 l/m 0 min 0 min 12 W/m 31,4 km/h (5 Bft)
15.01.2015 09:22 9,6 C 7,8 C 82 % 999,6 hPa 0,0 l/m 0 min 0 min 12 W/m 27,2 km/h (4 Bft)
15.01.2015 09:24 9,6 C 7,8 C 82 % 999,7 hPa 0,0 l/m 0 min 0 min 12 W/m 31,4 km/h (5 Bft)
15.01.2015 09:26 9,6 C 7,8 C 82 % 999,7 hPa 0,0 l/m 0 min 0 min 14 W/m 31,4 km/h (5 Bft)
15.01.2015 09:28 9,7 C 7,8 C 82 % 999,6 hPa 0,0 l/m 0 min 0 min 15 W/m 37,7 km/h (5 Bft)
15.01.2015 09:30 9,7 C 7,8 C 82 % 999,5 hPa 0,0 l/m 0 min 0 min 16 W/m 37,7 km/h (5 Bft)
15.01.2015 09:32 9,7 C 7,8 C 81 % 999,5 hPa 0,0 l/m 0 min 2 min 17 W/m 41,8 km/h (6 Bft)
15.01.2015 09:34 9,7 C 7,8 C 81 % 999,5 hPa 0,0 l/m 0 min 2 min 16 W/m 31,4 km/h (5 Bft)
15.01.2015 09:36 9,7 C 7,2 C 81 % 999,5 hPa 0,0 l/m 0 min 2 min 18 W/m 52,3 km/h (7 Bft)
15.01.2015 09:38 9,7 C 7,2 C 81 % 999,5 hPa 0,0 l/m 0 min 2 min 21 W/m 27,2 km/h (4 Bft)
15.01.2015 09:40 9,7 C 7,2 C 82 % 999,5 hPa 0,0 l/m 0 min 2 min 22 W/m 29,3 km/h (5 Bft)
15.01.2015 09:42 9,7 C 7,2 C 82 % 999,4 hPa 0,0 l/m 0 min 2 min 20 W/m 33,5 km/h (5 Bft)
15.01.2015 09:44 9,7 C 7,2 C 82 % 999,3 hPa 0,0 l/m 0 min 2 min 21 W/m 50,2 km/h (7 Bft)
15.01.2015 09:46 9,7 C 7,2 C 82 % 999,2 hPa 0,0 l/m 0 min 2 min 23 W/m 31,4 km/h (5 Bft)
15.01.2015 09:48 9,7 C 7,2 C 82 % 999,2 hPa 0,0 l/m 0 min 2 min 25 W/m 37,7 km/h (5 Bft)
15.01.2015 09:50 9,7 C 7,2 C 82 % 999,2 hPa 0,0 l/m 0 min 2 min 25 W/m 50,2 km/h (7 Bft)
15.01.2015 09:52 9,7 C 7,2 C 82 % 999,1 hPa 0,0 l/m 0 min 2 min 26 W/m 43,9 km/h (6 Bft)
15.01.2015 09:54 9,7 C 7,2 C 82 % 999,2 hPa 0,0 l/m 0 min 2 min 26 W/m 33,5 km/h (5 Bft)
15.01.2015 09:56 9,7 C 7,2 C 82 % 999,1 hPa 0,0 l/m 0 min 2 min 26 W/m 25,1 km/h (4 Bft)
15.01.2015 09:58 9,7 C 7,2 C 82 % 999,1 hPa 0,0 l/m 0 min 2 min 29 W/m 31,4 km/h (5 Bft)
15.01.2015 10:00 9,7 C 7,2 C 82 % 999,0 hPa 0,0 l/m 0 min 2 min 34 W/m 41,8 km/h (6 Bft)
15.01.2015 10:02 9,7 C 7,2 C 82 % 998,9 hPa 0,0 l/m 0 min 2 min 40 W/m 39,7 km/h (6 Bft)
15.01.2015 10:04 9,7 C 7,2 C 82 % 998,9 hPa 0,0 l/m 0 min 0 min 41 W/m 29,3 km/h (5 Bft)
15.01.2015 10:06 9,7 C 7,2 C 82 % 999,1 hPa 0,0 l/m 0 min 0 min 47 W/m 41,8 km/h (6 Bft)
15.01.2015 10:08 9,7 C 7,8 C 82 % 998,9 hPa 0,0 l/m 0 min 0 min 48 W/m 46,0 km/h (6 Bft)
15.01.2015 10:10 9,7 C 7,8 C 82 % 998,8 hPa 0,0 l/m 0 min 0 min 43 W/m 37,7 km/h (5 Bft)
15.01.2015 10:12 9,7 C 7,8 C 82 % 999,0 hPa 0,0 l/m 0 min 0 min 41 W/m 35,6 km/h (5 Bft)
15.01.2015 10:14 9,7 C 7,8 C 82 % 999,0 hPa 0,0 l/m 0 min 0 min 40 W/m 46,0 km/h (6 Bft)
15.01.2015 10:16 9,7 C 8,3 C 81 % 998,8 hPa 0,0 l/m 0 min 0 min 43 W/m 50,2 km/h (7 Bft)
15.01.2015 10:18 9,8 C 8,3 C 81 % 999,0 hPa 0,0 l/m 0 min 0 min 44 W/m 37,7 km/h (5 Bft)
15.01.2015 10:20 9,8 C 8,3 C 81 % 999,0 hPa 0,0 l/m 0 min 0 min 47 W/m 27,2 km/h (4 Bft)
15.01.2015 10:22 9,8 C 8,3 C 81 % 999,0 hPa 0,0 l/m 0 min 0 min 46 W/m 27,2 km/h (4 Bft)
15.01.2015 10:24 9,8 C 8,3 C 81 % 999,1 hPa 0,0 l/m 0 min 0 min 43 W/m 31,4 km/h (5 Bft)
15.01.2015 10:26 9,8 C 8,3 C 81 % 998,9 hPa 0,0 l/m 0 min 0 min 48 W/m 25,1 km/h (4 Bft)
15.01.2015 10:28 9,9 C 8,3 C 81 % 998,8 hPa 0,0 l/m 0 min 0 min 62 W/m 41,8 km/h (6 Bft)
15.01.2015 10:30 9,9 C 8,3 C 80 % 998,9 hPa 0,0 l/m 0 min 0 min 70 W/m 39,7 km/h (6 Bft)
15.01.2015 10:32 9,9 C 8,3 C 80 % 998,8 hPa 0,0 l/m 0 min 0 min 67 W/m 29,3 km/h (5 Bft)
15.01.2015 10:34 9,9 C 8,3 C 80 % 998,9 hPa 0,0 l/m 0 min 0 min 62 W/m 18,8 km/h (3 Bft)
15.01.2015 10:36 9,9 C 8,3 C 80 % 998,8 hPa 0,0 l/m 0 min 0 min 55 W/m 48,1 km/h (6 Bft)
15.01.2015 10:38 10,0 C 8,3 C 80 % 998,9 hPa 0,0 l/m 0 min 0 min 54 W/m 46,0 km/h (6 Bft)
15.01.2015 10:40 10,0 C 8,3 C 80 % 998,9 hPa 0,0 l/m 0 min 0 min 64 W/m 39,7 km/h (6 Bft)
15.01.2015 10:42 10,1 C 8,9 C 80 % 998,9 hPa 0,0 l/m 0 min 0 min 63 W/m 39,7 km/h (6 Bft)
15.01.2015 10:44 10,1 C 8,9 C 80 % 999,0 hPa 0,0 l/m 0 min 0 min 67 W/m 39,7 km/h (6 Bft)
15.01.2015 10:46 10,1 C 8,9 C 80 % 998,9 hPa 0,0 l/m 0 min 0 min 69 W/m 46,0 km/h (6 Bft)
15.01.2015 10:48 10,1 C 8,9 C 79 % 998,8 hPa 0,0 l/m 0 min 0 min 70 W/m 23,0 km/h (4 Bft)
15.01.2015 10:50 10,2 C 8,9 C 79 % 998,7 hPa 0,0 l/m 0 min 0 min 67 W/m 37,7 km/h (5 Bft)
15.01.2015 10:52 10,2 C 8,9 C 79 % 998,8 hPa 0,0 l/m 0 min 0 min 64 W/m 39,7 km/h (6 Bft)
15.01.2015 10:54 10,2 C 8,9 C 79 % 998,8 hPa 0,0 l/m 0 min 0 min 64 W/m 33,5 km/h (5 Bft)
15.01.2015 10:56 10,2 C 8,9 C 79 % 998,9 hPa 0,0 l/m 0 min 0 min 64 W/m 35,6 km/h (5 Bft)
15.01.2015 11:00 10,3 C 8,9 C 79 % 998,9 hPa 0,0 l/m 0 min 0 min 74 W/m 33,5 km/h (5 Bft)
15.01.2015 11:02 10,3 C 8,3 C 79 % 998,8 hPa 0,0 l/m 0 min 2 min 69 W/m 33,5 km/h (5 Bft)
15.01.2015 11:04 10,3 C 8,3 C 79 % 998,8 hPa 0,0 l/m 0 min 2 min 66 W/m 41,8 km/h (6 Bft)
15.01.2015 11:06 10,3 C 8,3 C 79 % 999,1 hPa 0,0 l/m 0 min 0 min 74 W/m 29,3 km/h (5 Bft)
15.01.2015 11:08 10,3 C 8,3 C 79 % 998,8 hPa 0,0 l/m 0 min 2 min 81 W/m 39,7 km/h (6 Bft)
15.01.2015 11:10 10,4 C 8,3 C 79 % 999,0 hPa 0,0 l/m 0 min 2 min 83 W/m 33,5 km/h (5 Bft)
15.01.2015 11:12 10,4 C 8,3 C 79 % 998,9 hPa 0,0 l/m 0 min 2 min 90 W/m 35,6 km/h (5 Bft)
15.01.2015 11:14 10,4 C 8,3 C 79 % 998,8 hPa 0,0 l/m 0 min 2 min 85 W/m 48,1 km/h (6 Bft)
15.01.2015 11:16 10,4 C 8,3 C 79 % 999,0 hPa 0,0 l/m 0 min 2 min 62 W/m 35,6 km/h (5 Bft)
15.01.2015 11:18 10,4 C 8,3 C 79 % 999,0 hPa 0,0 l/m 0 min 2 min 56 W/m 35,6 km/h (5 Bft)
15.01.2015 11:20 10,4 C 8,3 C 79 % 999,0 hPa 0,0 l/m 0 min 2 min 54 W/m 60,7 km/h (7 Bft)
15.01.2015 11:22 10,4 C 8,3 C 79 % 998,9 hPa 0,0 l/m 0 min 2 min 55 W/m 41,8 km/h (6 Bft)
15.01.2015 11:24 10,4 C 7,8 C 79 % 998,8 hPa 0,0 l/m 0 min 2 min 53 W/m 29,3 km/h (5 Bft)
15.01.2015 11:26 10,4 C 7,8 C 79 % 998,9 hPa 0,0 l/m 0 min 2 min 50 W/m 43,9 km/h (6 Bft)
15.01.2015 11:28 10,4 C 7,8 C 80 % 998,9 hPa 0,0 l/m 0 min 2 min 45 W/m 25,1 km/h (4 Bft)
15.01.2015 11:30 10,4 C 7,8 C 80 % 998,9 hPa 0,0 l/m 0 min 2 min 47 W/m 29,3 km/h (5 Bft)
15.01.2015 11:32 10,3 C 7,8 C 80 % 998,9 hPa 0,0 l/m 0 min 2 min 46 W/m 39,7 km/h (6 Bft)
15.01.2015 11:34 10,3 C 7,2 C 80 % 998,8 hPa 0,0 l/m 0 min 2 min 49 W/m 35,6 km/h (5 Bft)
15.01.2015 11:36 10,3 C 7,2 C 81 % 998,7 hPa 0,0 l/m 0 min 2 min 47 W/m 31,4 km/h (5 Bft)
15.01.2015 11:38 10,2 C 7,2 C 81 % 998,7 hPa 0,0 l/m 0 min 2 min 57 W/m 27,2 km/h (4 Bft)
15.01.2015 11:40 10,2 C 7,2 C 81 % 998,7 hPa 0,0 l/m 0 min 2 min 56 W/m 29,3 km/h (5 Bft)
15.01.2015 11:42 10,2 C 7,2 C 81 % 998,7 hPa 0,0 l/m 0 min 2 min 58 W/m 27,2 km/h (4 Bft)
15.01.2015 11:44 10,1 C 7,2 C 82 % 998,7 hPa 0,0 l/m 0 min 2 min 68 W/m 29,3 km/h (5 Bft)
15.01.2015 11:46 10,1 C 7,8 C 82 % 998,6 hPa 0,2 l/m 0 min 2 min 58 W/m 35,6 km/h (5 Bft)
15.01.2015 11:48 10,1 C 7,2 C 82 % 998,6 hPa 0,0 l/m 0 min 2 min 56 W/m 27,2 km/h (4 Bft)
15.01.2015 11:50 10,0 C 7,2 C 82 % 998,6 hPa 0,0 l/m 0 min 2 min 56 W/m 23,0 km/h (4 Bft)
15.01.2015 11:52 10,0 C 7,2 C 83 % 998,6 hPa 0,0 l/m 0 min 2 min 56 W/m 23,0 km/h (4 Bft)
15.01.2015 11:54 9,9 C 7,2 C 83 % 998,7 hPa 0,0 l/m 0 min 2 min 50 W/m 39,7 km/h (6 Bft)
15.01.2015 11:56 9,9 C 7,2 C 83 % 998,5 hPa 0,0 l/m 0 min 2 min 48 W/m 25,1 km/h (4 Bft)
15.01.2015 11:58 9,9 C 7,2 C 84 % 998,6 hPa 0,2 l/m 0 min 2 min 46 W/m 31,4 km/h (5 Bft)
15.01.2015 12:00 9,8 C 7,2 C 84 % 998,5 hPa 0,0 l/m 0 min 2 min 46 W/m 33,5 km/h (5 Bft)
15.01.2015 12:02 9,8 C 7,2 C 84 % 998,5 hPa 0,0 l/m 0 min 2 min 39 W/m 27,2 km/h (4 Bft)
15.01.2015 12:06 9,7 C 6,7 C 85 % 998,4 hPa 0,0 l/m 0 min 2 min 39 W/m 25,1 km/h (4 Bft)
15.01.2015 12:08 9,7 C 6,7 C 85 % 998,4 hPa 0,0 l/m 0 min 2 min 41 W/m 29,3 km/h (5 Bft)
15.01.2015 12:10 9,6 C 6,7 C 85 % 998,4 hPa 0,0 l/m 0 min 2 min 42 W/m 33,5 km/h (5 Bft)
15.01.2015 12:12 9,6 C 6,7 C 86 % 998,2 hPa 0,2 l/m 0 min 2 min 44 W/m 27,2 km/h (4 Bft)
15.01.2015 12:14 9,5 C 6,7 C 86 % 998,1 hPa 0,0 l/m 0 min 2 min 47 W/m 31,4 km/h (5 Bft)
15.01.2015 12:16 9,5 C 6,7 C 86 % 998,2 hPa 0,0 l/m 0 min 2 min 42 W/m 39,7 km/h (6 Bft)
15.01.2015 12:18 9,5 C 6,7 C 86 % 998,1 hPa 0,0 l/m 0 min 2 min 35 W/m 39,7 km/h (6 Bft)
15.01.2015 12:20 9,4 C 6,7 C 86 % 998,2 hPa 0,2 l/m 0 min 2 min 38 W/m 31,4 km/h (5 Bft)
15.01.2015 12:22 9,4 C 6,7 C 87 % 998,1 hPa 0,0 l/m 0 min 2 min 37 W/m 27,2 km/h (4 Bft)
15.01.2015 12:24 9,4 C 6,7 C 87 % 998,0 hPa 0,0 l/m 0 min 2 min 39 W/m 43,9 km/h (6 Bft)
15.01.2015 12:26 9,4 C 6,7 C 87 % 998,1 hPa 0,0 l/m 0 min 2 min 42 W/m 27,2 km/h (4 Bft)
15.01.2015 12:28 9,4 C 6,7 C 87 % 998,1 hPa 0,0 l/m 0 min 2 min 39 W/m 41,8 km/h (6 Bft)
15.01.2015 12:30 9,4 C 6,7 C 87 % 997,9 hPa 0,0 l/m 0 min 2 min 46 W/m 37,7 km/h (5 Bft)
15.01.2015 12:32 9,3 C 6,7 C 87 % 998,0 hPa 0,0 l/m 0 min 2 min 48 W/m 27,2 km/h (4 Bft)
15.01.2015 12:34 9,3 C 6,7 C 87 % 998,0 hPa 0,0 l/m 0 min 2 min 46 W/m 29,3 km/h (5 Bft)
15.01.2015 12:36 9,3 C 6,7 C 87 % 997,9 hPa 0,0 l/m 0 min 2 min 52 W/m 35,6 km/h (5 Bft)
15.01.2015 12:38 9,4 C 6,7 C 87 % 997,9 hPa 0,0 l/m 0 min 2 min 52 W/m 31,4 km/h (5 Bft)
15.01.2015 12:40 9,4 C 6,7 C 87 % 997,9 hPa 0,0 l/m 0 min 2 min 60 W/m 23,0 km/h (4 Bft)
15.01.2015 12:42 9,4 C 6,7 C 87 % 997,8 hPa 0,0 l/m 0 min 2 min 58 W/m 20,9 km/h (4 Bft)
15.01.2015 12:44 9,4 C 7,2 C 87 % 997,9 hPa 0,0 l/m 0 min 2 min 57 W/m 48,1 km/h (6 Bft)
15.01.2015 12:46 9,4 C 7,2 C 87 % 997,7 hPa 0,0 l/m 0 min 2 min 63 W/m 37,7 km/h (5 Bft)
15.01.2015 12:48 9,4 C 7,2 C 87 % 997,8 hPa 0,0 l/m 0 min 2 min 59 W/m 39,7 km/h (6 Bft)
15.01.2015 12:50 9,4 C 7,2 C 86 % 997,6 hPa 0,0 l/m 0 min 2 min 53 W/m 37,7 km/h (5 Bft)
15.01.2015 12:52 9,5 C 7,2 C 86 % 997,7 hPa 0,0 l/m 0 min 2 min 54 W/m 35,6 km/h (5 Bft)
15.01.2015 12:54 9,6 C 7,2 C 86 % 997,5 hPa 0,0 l/m 0 min 2 min 55 W/m 50,2 km/h (7 Bft)
15.01.2015 12:56 9,6 C 7,2 C 86 % 997,5 hPa 0,0 l/m 0 min 2 min 51 W/m 27,2 km/h (4 Bft)
15.01.2015 12:58 9,6 C 7,2 C 86 % 997,5 hPa 0,0 l/m 0 min 2 min 48 W/m 29,3 km/h (5 Bft)
15.01.2015 13:00 9,7 C 7,2 C 86 % 997,5 hPa 0,0 l/m 0 min 2 min 51 W/m 52,3 km/h (7 Bft)
15.01.2015 13:02 9,7 C 7,2 C 85 % 997,4 hPa 0,0 l/m 0 min 2 min 49 W/m 33,5 km/h (5 Bft)
15.01.2015 13:04 9,7 C 7,2 C 85 % 997,5 hPa 0,0 l/m 0 min 2 min 46 W/m 27,2 km/h (4 Bft)
15.01.2015 13:06 9,7 C 7,2 C 85 % 997,4 hPa 0,0 l/m 0 min 2 min 47 W/m 39,7 km/h (6 Bft)
15.01.2015 13:08 9,8 C 7,2 C 85 % 997,4 hPa 0,0 l/m 0 min 2 min 47 W/m 43,9 km/h (6 Bft)
15.01.2015 13:10 9,8 C 7,2 C 84 % 997,4 hPa 0,0 l/m 0 min 2 min 45 W/m 48,1 km/h (6 Bft)
15.01.2015 13:12 9,9 C 7,2 C 84 % 997,3 hPa 0,2 l/m 0 min 2 min 46 W/m 50,2 km/h (7 Bft)
15.01.2015 13:14 9,9 C 7,2 C 83 % 997,4 hPa 0,0 l/m 0 min 2 min 47 W/m 39,7 km/h (6 Bft)
15.01.2015 13:16 10,0 C 7,2 C 83 % 997,3 hPa 0,0 l/m 0 min 2 min 47 W/m 46,0 km/h (6 Bft)
15.01.2015 13:18 10,1 C 7,8 C 83 % 997,4 hPa 0,0 l/m 0 min 2 min 49 W/m 48,1 km/h (6 Bft)
15.01.2015 13:20 10,1 C 7,8 C 82 % 997,2 hPa 0,0 l/m 0 min 2 min 52 W/m 35,6 km/h (5 Bft)
15.01.2015 13:22 10,1 C 7,8 C 82 % 997,2 hPa 0,0 l/m 0 min 2 min 54 W/m 50,2 km/h (7 Bft)
15.01.2015 13:24 10,2 C 7,8 C 82 % 997,3 hPa 0,0 l/m 0 min 2 min 52 W/m 48,1 km/h (6 Bft)
15.01.2015 13:26 10,2 C 7,8 C 82 % 997,2 hPa 0,0 l/m 0 min 2 min 52 W/m 48,1 km/h (6 Bft)
15.01.2015 13:28 10,3 C 7,8 C 81 % 997,3 hPa 0,0 l/m 0 min 2 min 53 W/m 39,7 km/h (6 Bft)
15.01.2015 13:30 10,3 C 7,8 C 81 % 997,2 hPa 0,0 l/m 0 min 2 min 48 W/m 41,8 km/h (6 Bft)
15.01.2015 13:32 10,3 C 7,8 C 80 % 997,2 hPa 0,0 l/m 0 min 2 min 44 W/m 46,0 km/h (6 Bft)
15.01.2015 13:34 10,4 C 7,8 C 80 % 997,1 hPa 0,0 l/m 0 min 2 min 40 W/m 35,6 km/h (5 Bft)
15.01.2015 13:36 10,4 C 7,8 C 80 % 997,2 hPa 0,0 l/m 0 min 2 min 41 W/m 31,4 km/h (5 Bft)
15.01.2015 13:38 10,4 C 7,8 C 80 % 997,1 hPa 0,0 l/m 0 min 2 min 43 W/m 41,8 km/h (6 Bft)
15.01.2015 13:40 10,4 C 7,8 C 80 % 997,1 hPa 0,0 l/m 0 min 2 min 42 W/m 48,1 km/h (6 Bft)
15.01.2015 13:42 10,4 C 7,8 C 80 % 997,0 hPa 0,0 l/m 0 min 2 min 39 W/m 25,1 km/h (4 Bft)
15.01.2015 13:44 10,4 C 7,8 C 80 % 997,1 hPa 0,0 l/m 0 min 2 min 33 W/m 46,0 km/h (6 Bft)
15.01.2015 13:46 10,4 C 7,8 C 80 % 997,1 hPa 0,0 l/m 0 min 2 min 31 W/m 41,8 km/h (6 Bft)
15.01.2015 13:48 10,4 C 7,8 C 80 % 997,1 hPa 0,0 l/m 0 min 2 min 32 W/m 39,7 km/h (6 Bft)
15.01.2015 13:50 10,4 C 7,8 C 79 % 996,7 hPa 0,0 l/m 0 min 2 min 36 W/m 58,6 km/h (7 Bft)
15.01.2015 13:52 10,5 C 7,8 C 79 % 996,9 hPa 0,0 l/m 0 min 2 min 41 W/m 52,3 km/h (7 Bft)
15.01.2015 13:54 10,5 C 7,8 C 79 % 996,9 hPa 0,0 l/m 0 min 2 min 43 W/m 54,4 km/h (7 Bft)
15.01.2015 13:56 10,5 C 8,3 C 79 % 997,0 hPa 0,0 l/m 0 min 2 min 47 W/m 46,0 km/h (6 Bft)
15.01.2015 13:58 10,5 C 8,3 C 79 % 997,0 hPa 0,0 l/m 0 min 2 min 51 W/m 52,3 km/h (7 Bft)
15.01.2015 14:00 10,6 C 8,3 C 79 % 997,0 hPa 0,0 l/m 0 min 2 min 54 W/m 27,2 km/h (4 Bft)
15.01.2015 14:02 10,5 C 7,8 C 79 % 996,9 hPa 0,0 l/m 0 min 2 min 54 W/m 39,7 km/h (6 Bft)
15.01.2015 14:04 10,5 C 7,8 C 79 % 996,7 hPa 0,0 l/m 0 min 2 min 64 W/m 50,2 km/h (7 Bft)
15.01.2015 14:06 10,5 C 8,3 C 79 % 996,8 hPa 0,0 l/m 0 min 2 min 76 W/m 54,4 km/h (7 Bft)
15.01.2015 14:08 10,4 C 8,3 C 80 % 996,8 hPa 0,0 l/m 0 min 2 min 74 W/m 50,2 km/h (7 Bft)
15.01.2015 14:10 10,4 C 8,3 C 80 % 996,7 hPa 0,0 l/m 0 min 2 min 84 W/m 41,8 km/h (6 Bft)
15.01.2015 14:12 10,4 C 8,3 C 80 % 996,7 hPa 0,0 l/m 0 min 2 min 85 W/m 46,0 km/h (6 Bft)
15.01.2015 14:14 10,4 C 8,3 C 80 % 996,6 hPa 0,0 l/m 0 min 2 min 77 W/m 37,7 km/h (5 Bft)
15.01.2015 14:16 10,4 C 8,3 C 80 % 996,7 hPa 0,0 l/m 0 min 2 min 69 W/m 64,9 km/h (8 Bft)
15.01.2015 14:18 10,4 C 8,3 C 80 % 996,6 hPa 0,0 l/m 0 min 2 min 71 W/m 52,3 km/h (7 Bft)
15.01.2015 14:20 10,4 C 8,3 C 80 % 996,6 hPa 0,0 l/m 0 min 2 min 83 W/m 52,3 km/h (7 Bft)
15.01.2015 14:22 10,4 C 8,9 C 80 % 996,5 hPa 0,0 l/m 0 min 2 min 108 W/m 46,0 km/h (6 Bft)
15.01.2015 14:24 10,4 C 8,9 C 80 % 996,5 hPa 0,0 l/m 2 min 2 min 129 W/m 41,8 km/h (6 Bft)
15.01.2015 14:26 10,4 C 8,9 C 80 % 996,4 hPa 0,0 l/m 2 min 2 min 138 W/m 33,5 km/h (5 Bft)
15.01.2015 14:28 10,4 C 8,9 C 80 % 996,4 hPa 0,0 l/m 2 min 2 min 144 W/m 33,5 km/h (5 Bft)
15.01.2015 14:30 10,5 C 8,9 C 80 % 996,3 hPa 0,0 l/m 2 min 2 min 134 W/m 25,1 km/h (4 Bft)
15.01.2015 14:32 10,5 C 8,9 C 80 % 996,4 hPa 0,0 l/m 2 min 2 min 128 W/m 77,8 km/h (9 Bft)
15.01.2015 14:34 10,6 C 9,4 C 79 % 996,2 hPa 0,0 l/m 2 min 2 min 125 W/m 41,8 km/h (6 Bft)
15.01.2015 14:36 10,6 C 8,9 C 79 % 996,2 hPa 0,0 l/m 0 min 2 min 102 W/m 48,1 km/h (6 Bft)
15.01.2015 14:38 10,6 C 9,4 C 78 % 996,4 hPa 0,0 l/m 0 min 2 min 84 W/m 52,3 km/h (7 Bft)
15.01.2015 14:40 10,7 C 9,4 C 78 % 996,3 hPa 0,0 l/m 0 min 2 min 86 W/m 41,8 km/h (6 Bft)
15.01.2015 14:42 10,7 C 9,4 C 78 % 996,2 hPa 0,0 l/m 0 min 2 min 89 W/m 31,4 km/h (5 Bft)
15.01.2015 14:44 10,7 C 9,4 C 78 % 996,2 hPa 0,0 l/m 0 min 2 min 82 W/m 58,6 km/h (7 Bft)
15.01.2015 14:46 10,8 C 9,4 C 77 % 996,2 hPa 0,0 l/m 0 min 2 min 77 W/m 41,8 km/h (6 Bft)
15.01.2015 14:48 10,8 C 9,4 C 77 % 996,2 hPa 0,0 l/m 0 min 2 min 70 W/m 35,6 km/h (5 Bft)
15.01.2015 14:50 10,8 C 9,4 C 77 % 996,1 hPa 0,0 l/m 0 min 2 min 66 W/m 37,7 km/h (5 Bft)
15.01.2015 14:52 10,9 C 9,4 C 76 % 995,9 hPa 0,0 l/m 0 min 2 min 61 W/m 41,8 km/h (6 Bft)
15.01.2015 14:54 10,9 C 9,4 C 76 % 996,1 hPa 0,0 l/m 0 min 2 min 61 W/m 50,2 km/h (7 Bft)
15.01.2015 14:56 10,9 C 9,4 C 76 % 996,0 hPa 0,0 l/m 0 min 2 min 52 W/m 46,0 km/h (6 Bft)
15.01.2015 14:58 10,9 C 9,4 C 76 % 996,1 hPa 0,0 l/m 0 min 2 min 51 W/m 39,7 km/h (6 Bft)
15.01.2015 15:00 10,9 C 9,4 C 76 % 996,1 hPa 0,0 l/m 0 min 2 min 51 W/m 50,2 km/h (7 Bft)
15.01.2015 15:02 10,9 C 9,4 C 76 % 996,0 hPa 0,0 l/m 0 min 2 min 54 W/m 58,6 km/h (7 Bft)
15.01.2015 15:04 10,9 C 9,4 C 76 % 996,0 hPa 0,0 l/m 0 min 2 min 56 W/m 48,1 km/h (6 Bft)
15.01.2015 15:06 10,9 C 9,4 C 76 % 995,9 hPa 0,0 l/m 0 min 2 min 61 W/m 33,5 km/h (5 Bft)
15.01.2015 15:08 10,9 C 9,4 C 76 % 995,9 hPa 0,0 l/m 0 min 2 min 59 W/m 37,7 km/h (5 Bft)
15.01.2015 15:10 10,9 C 9,4 C 76 % 995,9 hPa 0,0 l/m 0 min 2 min 56 W/m 37,7 km/h (5 Bft)
15.01.2015 15:12 10,9 C 9,4 C 76 % 995,9 hPa 0,0 l/m 0 min 2 min 52 W/m 46,0 km/h (6 Bft)
15.01.2015 15:14 11,0 C 9,4 C 75 % 995,9 hPa 0,0 l/m 0 min 2 min 46 W/m 43,9 km/h (6 Bft)
15.01.2015 15:16 11,0 C 9,4 C 75 % 995,9 hPa 0,0 l/m 0 min 2 min 42 W/m 54,4 km/h (7 Bft)
15.01.2015 15:18 11,0 C 9,4 C 75 % 995,8 hPa 0,0 l/m 0 min 2 min 43 W/m 33,5 km/h (5 Bft)
15.01.2015 15:20 11,0 C 9,4 C 75 % 995,8 hPa 0,0 l/m 0 min 2 min 37 W/m 50,2 km/h (7 Bft)
15.01.2015 15:22 11,1 C 9,4 C 74 % 995,8 hPa 0,0 l/m 0 min 2 min 31 W/m 48,1 km/h (6 Bft)
15.01.2015 15:24 11,1 C 9,4 C 74 % 995,9 hPa 0,0 l/m 0 min 2 min 31 W/m 23,0 km/h (4 Bft)
15.01.2015 15:26 11,1 C 9,4 C 75 % 996,0 hPa 0,0 l/m 0 min 2 min 35 W/m 31,4 km/h (5 Bft)
15.01.2015 15:28 11,1 C 9,4 C 75 % 995,9 hPa 0,0 l/m 0 min 2 min 34 W/m 35,6 km/h (5 Bft)
15.01.2015 15:30 11,1 C 9,4 C 75 % 995,9 hPa 0,0 l/m 0 min 2 min 33 W/m 29,3 km/h (5 Bft)
15.01.2015 15:32 11,0 C 9,4 C 75 % 995,8 hPa 0,0 l/m 0 min 2 min 29 W/m 46,0 km/h (6 Bft)
15.01.2015 15:34 11,1 C 9,4 C 74 % 996,0 hPa 0,0 l/m 0 min 2 min 27 W/m 41,8 km/h (6 Bft)
15.01.2015 15:36 11,0 C 9,4 C 75 % 995,9 hPa 0,0 l/m 0 min 2 min 21 W/m 46,0 km/h (6 Bft)
15.01.2015 15:38 11,0 C 9,4 C 74 % 995,8 hPa 0,0 l/m 0 min 0 min 23 W/m 52,3 km/h (7 Bft)
15.01.2015 15:40 11,0 C 9,4 C 74 % 996,0 hPa 0,0 l/m 0 min 0 min 21 W/m 35,6 km/h (5 Bft)
15.01.2015 15:42 11,0 C 9,4 C 74 % 996,1 hPa 0,0 l/m 0 min 0 min 19 W/m 37,7 km/h (5 Bft)
15.01.2015 15:44 11,0 C 9,4 C 74 % 995,9 hPa 0,0 l/m 0 min 0 min 18 W/m 37,7 km/h (5 Bft)
15.01.2015 15:46 11,0 C 8,9 C 75 % 996,1 hPa 0,0 l/m 0 min 0 min 18 W/m 33,5 km/h (5 Bft)
15.01.2015 15:48 11,0 C 8,9 C 74 % 996,2 hPa 0,0 l/m 0 min 0 min 17 W/m 39,7 km/h (6 Bft)
15.01.2015 15:50 11,0 C 8,9 C 74 % 996,0 hPa 0,0 l/m 0 min 0 min 15 W/m 46,0 km/h (6 Bft)
15.01.2015 15:52 11,0 C 8,9 C 75 % 995,9 hPa 0,0 l/m 0 min 0 min 16 W/m 31,4 km/h (5 Bft)
15.01.2015 15:54 10,9 C 8,9 C 75 % 996,2 hPa 0,0 l/m 0 min 2 min 18 W/m 35,6 km/h (5 Bft)
15.01.2015 15:56 10,9 C 8,9 C 75 % 996,2 hPa 0,0 l/m 0 min 2 min 15 W/m 31,4 km/h (5 Bft)
15.01.2015 15:58 10,9 C 8,9 C 75 % 996,2 hPa 0,0 l/m 0 min 0 min 14 W/m 46,0 km/h (6 Bft)
15.01.2015 16:00 10,9 C 8,9 C 75 % 995,9 hPa 0,0 l/m 0 min 2 min 17 W/m 56,5 km/h (7 Bft)
15.01.2015 16:02 10,9 C 8,9 C 75 % 996,2 hPa 0,0 l/m 0 min 2 min 24 W/m 46,0 km/h (6 Bft)
15.01.2015 16:04 10,9 C 8,9 C 76 % 996,1 hPa 0,0 l/m 0 min 2 min 25 W/m 46,0 km/h (6 Bft)
15.01.2015 16:06 10,9 C 8,9 C 76 % 996,0 hPa 0,0 l/m 0 min 0 min 28 W/m 50,2 km/h (7 Bft)
15.01.2015 16:08 10,9 C 8,9 C 76 % 996,0 hPa 0,0 l/m 0 min 0 min 25 W/m 58,6 km/h (7 Bft)
15.01.2015 16:10 10,9 C 8,9 C 76 % 996,1 hPa 0,0 l/m 0 min 0 min 19 W/m 43,9 km/h (6 Bft)
15.01.2015 16:12 10,8 C 8,9 C 77 % 996,1 hPa 0,0 l/m 0 min 0 min 18 W/m 27,2 km/h (4 Bft)
15.01.2015 16:14 10,8 C 8,9 C 77 % 996,0 hPa 0,0 l/m 0 min 0 min 14 W/m 39,7 km/h (6 Bft)
15.01.2015 16:16 10,8 C 8,9 C 77 % 996,1 hPa 0,0 l/m 0 min 0 min 12 W/m 66,9 km/h (8 Bft)
15.01.2015 16:18 10,8 C 8,9 C 77 % 996,0 hPa 0,0 l/m 0 min 0 min 12 W/m 60,7 km/h (7 Bft)
15.01.2015 16:20 10,8 C 8,9 C 77 % 996,0 hPa 0,0 l/m 0 min 0 min 14 W/m 46,0 km/h (6 Bft)
15.01.2015 16:22 10,8 C 8,9 C 77 % 995,8 hPa 0,0 l/m 0 min 0 min 17 W/m 50,2 km/h (7 Bft)
15.01.2015 16:24 10,8 C 8,9 C 77 % 996,0 hPa 0,0 l/m 0 min 0 min 16 W/m 54,4 km/h (7 Bft)
15.01.2015 16:26 10,8 C 8,9 C 77 % 995,9 hPa 0,0 l/m 0 min 0 min 14 W/m 41,8 km/h (6 Bft)
15.01.2015 16:28 10,8 C 8,9 C 77 % 995,9 hPa 0,0 l/m 0 min 0 min 13 W/m 54,4 km/h (7 Bft)
15.01.2015 16:30 10,8 C 8,9 C 77 % 995,9 hPa 0,0 l/m 0 min 0 min 10 W/m 43,9 km/h (6 Bft)
15.01.2015 16:32 10,8 C 8,9 C 77 % 996,0 hPa 0,0 l/m 0 min 0 min 9 W/m 58,6 km/h (7 Bft)
15.01.2015 16:34 10,8 C 8,9 C 77 % 995,9 hPa 0,0 l/m 0 min 0 min 9 W/m 46,0 km/h (6 Bft)
15.01.2015 16:36 10,8 C 8,9 C 77 % 995,9 hPa 0,0 l/m 0 min 0 min 11 W/m 56,5 km/h (7 Bft)
15.01.2015 16:38 10,8 C 8,9 C 77 % 995,9 hPa 0,0 l/m 0 min 0 min 10 W/m 48,1 km/h (6 Bft)
15.01.2015 16:40 10,8 C 8,9 C 77 % 996,0 hPa 0,0 l/m 0 min 0 min 6 W/m 52,3 km/h (7 Bft)
15.01.2015 16:42 10,8 C 8,9 C 77 % 995,8 hPa 0,0 l/m 0 min 0 min 5 W/m 41,8 km/h (6 Bft)
15.01.2015 16:44 10,8 C 8,9 C 77 % 995,8 hPa 0,0 l/m 0 min 0 min 5 W/m 50,2 km/h (7 Bft)
15.01.2015 16:46 10,8 C 8,9 C 77 % 996,0 hPa 0,0 l/m 0 min 0 min 5 W/m 46,0 km/h (6 Bft)
15.01.2015 16:48 10,8 C 8,9 C 77 % 996,0 hPa 0,0 l/m 0 min 0 min 2 W/m 56,5 km/h (7 Bft)
15.01.2015 16:50 10,8 C 8,9 C 77 % 996,1 hPa 0,0 l/m 0 min 0 min 0 W/m 46,0 km/h (6 Bft)
15.01.2015 16:52 10,8 C 8,9 C 77 % 996,2 hPa 0,0 l/m 0 min 0 min 0 W/m 37,7 km/h (5 Bft)
15.01.2015 16:54 10,8 C 8,9 C 77 % 996,2 hPa 0,0 l/m 0 min 0 min 0 W/m 43,9 km/h (6 Bft)
15.01.2015 16:56 10,8 C 8,9 C 77 % 996,2 hPa 0,0 l/m 0 min 0 min 0 W/m 50,2 km/h (7 Bft)
15.01.2015 16:58 10,8 C 9,4 C 77 % 995,9 hPa 0,0 l/m 0 min 0 min 0 W/m 52,3 km/h (7 Bft)
15.01.2015 17:00 10,8 C 8,9 C 77 % 996,0 hPa 0,0 l/m 0 min 0 min 0 W/m 48,1 km/h (6 Bft)
15.01.2015 17:02 10,8 C 8,9 C 77 % 995,9 hPa 0,0 l/m 0 min 0 min 0 W/m 50,2 km/h (7 Bft)
15.01.2015 17:04 10,8 C 8,9 C 78 % 996,0 hPa 0,0 l/m 0 min 0 min 0 W/m 54,4 km/h (7 Bft)
15.01.2015 17:06 10,8 C 8,9 C 78 % 996,0 hPa 0,0 l/m 0 min 0 min 0 W/m 43,9 km/h (6 Bft)
15.01.2015 17:08 10,8 C 8,9 C 77 % 996,1 hPa 0,0 l/m 0 min 0 min 0 W/m 50,2 km/h (7 Bft)
15.01.2015 17:10 10,8 C 8,9 C 78 % 996,1 hPa 0,0 l/m 0 min 0 min 0 W/m 48,1 km/h (6 Bft)
15.01.2015 17:12 10,8 C 8,9 C 78 % 996,2 hPa 0,0 l/m 0 min 0 min 0 W/m 52,3 km/h (7 Bft)
15.01.2015 17:14 10,8 C 8,9 C 78 % 996,1 hPa 0,0 l/m 0 min 0 min 0 W/m 46,0 km/h (6 Bft)
15.01.2015 17:16 10,8 C 8,9 C 78 % 996,1 hPa 0,0 l/m 0 min 0 min 0 W/m 52,3 km/h (7 Bft)
15.01.2015 17:18 10,8 C 8,9 C 78 % 996,3 hPa 0,0 l/m 0 min 0 min 0 W/m 46,0 km/h (6 Bft)
15.01.2015 17:20 10,8 C 8,9 C 78 % 996,2 hPa 0,0 l/m 0 min 0 min 0 W/m 41,8 km/h (6 Bft)
15.01.2015 17:22 10,8 C 8,9 C 78 % 996,1 hPa 0,0 l/m 0 min 2 min 0 W/m 37,7 km/h (5 Bft)
15.01.2015 17:24 10,8 C 8,9 C 78 % 996,1 hPa 0,0 l/m 0 min 2 min 0 W/m 50,2 km/h (7 Bft)
15.01.2015 17:26 10,7 C 8,9 C 79 % 996,1 hPa 0,0 l/m 0 min 2 min 0 W/m 39,7 km/h (6 Bft)
15.01.2015 17:28 10,7 C 8,9 C 79 % 996,0 hPa 0,0 l/m 0 min 2 min 0 W/m 43,9 km/h (6 Bft)
15.01.2015 17:30 10,7 C 8,9 C 79 % 996,2 hPa 0,0 l/m 0 min 0 min 0 W/m 37,7 km/h (5 Bft)
15.01.2015 17:32 10,6 C 8,9 C 79 % 996,2 hPa 0,0 l/m 0 min 0 min 0 W/m 39,7 km/h (6 Bft)
15.01.2015 17:34 10,6 C 8,9 C 79 % 996,4 hPa 0,0 l/m 0 min 0 min 0 W/m 46,0 km/h (6 Bft)
15.01.2015 17:36 10,6 C 8,9 C 79 % 996,2 hPa 0,0 l/m 0 min 0 min 0 W/m 31,4 km/h (5 Bft)
15.01.2015 17:38 10,6 C 8,9 C 79 % 996,3 hPa 0,0 l/m 0 min 0 min 0 W/m 48,1 km/h (6 Bft)
15.01.2015 17:40 10,5 C 8,9 C 79 % 996,5 hPa 0,0 l/m 0 min 0 min 0 W/m 48,1 km/h (6 Bft)
15.01.2015 17:42 10,5 C 8,9 C 79 % 996,4 hPa 0,0 l/m 0 min 0 min 0 W/m 43,9 km/h (6 Bft)
15.01.2015 17:44 10,5 C 8,9 C 79 % 996,5 hPa 0,0 l/m 0 min 0 min 0 W/m 43,9 km/h (6 Bft)
15.01.2015 17:46 10,5 C 8,9 C 79 % 996,4 hPa 0,0 l/m 0 min 0 min 0 W/m 50,2 km/h (7 Bft)
15.01.2015 17:48 10,5 C 8,9 C 79 % 996,6 hPa 0,0 l/m 0 min 0 min 0 W/m 58,6 km/h (7 Bft)
15.01.2015 17:50 10,5 C 8,9 C 79 % 996,5 hPa 0,0 l/m 0 min 0 min 0 W/m 37,7 km/h (5 Bft)
15.01.2015 17:52 10,5 C 8,9 C 79 % 996,6 hPa 0,0 l/m 0 min 0 min 0 W/m 39,7 km/h (6 Bft)
15.01.2015 17:54 10,4 C 8,9 C 79 % 996,5 hPa 0,0 l/m 0 min 0 min 0 W/m 41,8 km/h (6 Bft)
15.01.2015 17:56 10,4 C 8,3 C 79 % 996,4 hPa 0,0 l/m 0 min 0 min 0 W/m 37,7 km/h (5 Bft)
15.01.2015 17:58 10,4 C 8,3 C 79 % 996,4 hPa 0,0 l/m 0 min 0 min 0 W/m 46,0 km/h (6 Bft)
15.01.2015 18:00 10,4 C 8,9 C 79 % 996,4 hPa 0,0 l/m 0 min 0 min 0 W/m 52,3 km/h (7 Bft)
15.01.2015 18:02 10,4 C 8,9 C 79 % 996,4 hPa 0,0 l/m 0 min 0 min 0 W/m 48,1 km/h (6 Bft)
15.01.2015 18:06 10,4 C 8,3 C 79 % 996,3 hPa 0,0 l/m 0 min 0 min 0 W/m 41,8 km/h (6 Bft)
15.01.2015 18:08 10,3 C 8,3 C 80 % 996,6 hPa 0,0 l/m 0 min 0 min 0 W/m 46,0 km/h (6 Bft)
15.01.2015 18:10 10,3 C 8,3 C 80 % 996,4 hPa 0,0 l/m 0 min 0 min 0 W/m 48,1 km/h (6 Bft)
15.01.2015 18:12 10,3 C 8,9 C 80 % 996,5 hPa 0,0 l/m 0 min 0 min 0 W/m 52,3 km/h (7 Bft)
15.01.2015 18:14 10,3 C 8,9 C 80 % 996,7 hPa 0,0 l/m 0 min 0 min 0 W/m 35,6 km/h (5 Bft)
15.01.2015 18:16 10,3 C 8,9 C 80 % 996,6 hPa 0,0 l/m 0 min 0 min 0 W/m 54,4 km/h (7 Bft)
15.01.2015 18:18 10,3 C 8,9 C 80 % 996,7 hPa 0,0 l/m 0 min 0 min 0 W/m 50,2 km/h (7 Bft)
15.01.2015 18:20 10,3 C 8,9 C 80 % 996,6 hPa 0,0 l/m 0 min 2 min 0 W/m 50,2 km/h (7 Bft)
15.01.2015 18:22 10,3 C 8,9 C 80 % 996,7 hPa 0,0 l/m 0 min 2 min 0 W/m 43,9 km/h (6 Bft)
15.01.2015 18:24 10,3 C 8,3 C 80 % 996,7 hPa 0,0 l/m 0 min 2 min 0 W/m 58,6 km/h (7 Bft)
15.01.2015 18:26 10,3 C 8,3 C 80 % 996,6 hPa 0,0 l/m 0 min 2 min 0 W/m 41,8 km/h (6 Bft)
15.01.2015 18:28 10,3 C 7,8 C 81 % 996,6 hPa 0,0 l/m 0 min 2 min 0 W/m 52,3 km/h (7 Bft)
15.01.2015 18:30 10,3 C 7,8 C 81 % 996,6 hPa 0,0 l/m 0 min 2 min 0 W/m 39,7 km/h (6 Bft)
15.01.2015 18:32 10,2 C 7,8 C 81 % 996,7 hPa 0,0 l/m 0 min 2 min 0 W/m 41,8 km/h (6 Bft)
15.01.2015 18:34 10,2 C 7,8 C 82 % 996,7 hPa 0,0 l/m 0 min 2 min 0 W/m 43,9 km/h (6 Bft)
15.01.2015 18:36 10,2 C 8,3 C 82 % 996,7 hPa 0,0 l/m 0 min 2 min 0 W/m 60,7 km/h (7 Bft)
15.01.2015 18:38 10,2 C 8,3 C 82 % 996,9 hPa 0,0 l/m 0 min 2 min 0 W/m 39,7 km/h (6 Bft)
15.01.2015 18:40 10,2 C 8,3 C 82 % 996,8 hPa 0,0 l/m 0 min 0 min 0 W/m 52,3 km/h (7 Bft)
15.01.2015 18:42 10,1 C 8,3 C 82 % 996,8 hPa 0,0 l/m 0 min 0 min 0 W/m 50,2 km/h (7 Bft)
15.01.2015 18:44 10,1 C 8,3 C 82 % 996,8 hPa 0,0 l/m 0 min 2 min 0 W/m 41,8 km/h (6 Bft)
15.01.2015 18:46 10,1 C 8,3 C 83 % 996,6 hPa 0,0 l/m 0 min 2 min 0 W/m 41,8 km/h (6 Bft)
15.01.2015 18:48 10,1 C 8,3 C 83 % 996,8 hPa 0,0 l/m 0 min 0 min 0 W/m 50,2 km/h (7 Bft)
15.01.2015 18:50 10,1 C 8,3 C 83 % 997,1 hPa 0,0 l/m 0 min 0 min 0 W/m 48,1 km/h (6 Bft)
15.01.2015 18:52 10,1 C 8,3 C 83 % 997,2 hPa 0,0 l/m 0 min 2 min 0 W/m 48,1 km/h (6 Bft)
15.01.2015 18:54 10,1 C 8,3 C 83 % 997,2 hPa 0,0 l/m 0 min 2 min 0 W/m 35,6 km/h (5 Bft)
15.01.2015 18:56 10,1 C 8,3 C 83 % 997,2 hPa 0,0 l/m 0 min 0 min 0 W/m 43,9 km/h (6 Bft)
15.01.2015 18:58 10,1 C 7,8 C 83 % 997,3 hPa 0,0 l/m 0 min 2 min 0 W/m 29,3 km/h (5 Bft)
15.01.2015 19:00 10,0 C 7,8 C 84 % 997,3 hPa 0,0 l/m 0 min 2 min 0 W/m 33,5 km/h (5 Bft)
15.01.2015 19:02 10,0 C 7,8 C 84 % 997,3 hPa 0,0 l/m 0 min 2 min 0 W/m 23,0 km/h (4 Bft)
15.01.2015 19:04 9,9 C 7,8 C 84 % 997,4 hPa 0,0 l/m 0 min 2 min 0 W/m 23,0 km/h (4 Bft)
15.01.2015 19:06 9,8 C 7,2 C 84 % 997,4 hPa 0,0 l/m 0 min 2 min 0 W/m 18,8 km/h (3 Bft)
15.01.2015 19:08 9,7 C 7,2 C 84 % 997,6 hPa 0,0 l/m 0 min 2 min 0 W/m 23,0 km/h (4 Bft)
15.01.2015 19:10 9,6 C 6,7 C 85 % 997,6 hPa 0,0 l/m 0 min 2 min 0 W/m 31,4 km/h (5 Bft)
15.01.2015 19:12 9,5 C 6,7 C 85 % 997,6 hPa 0,0 l/m 0 min 2 min 0 W/m 31,4 km/h (5 Bft)
15.01.2015 19:14 9,4 C 6,7 C 86 % 997,6 hPa 0,0 l/m 0 min 2 min 0 W/m 25,1 km/h (4 Bft)
15.01.2015 19:16 9,3 C 6,7 C 86 % 997,6 hPa 0,2 l/m 0 min 2 min 0 W/m 29,3 km/h (5 Bft)
15.01.2015 19:18 9,2 C 6,7 C 87 % 997,7 hPa 0,0 l/m 0 min 2 min 0 W/m 20,9 km/h (4 Bft)
15.01.2015 19:20 9,1 C 6,7 C 87 % 997,9 hPa 0,0 l/m 0 min 2 min 0 W/m 29,3 km/h (5 Bft)
15.01.2015 19:22 9,0 C 6,7 C 88 % 997,7 hPa 0,0 l/m 0 min 2 min 0 W/m 43,9 km/h (6 Bft)
15.01.2015 19:24 9,0 C 6,7 C 88 % 997,7 hPa 0,0 l/m 0 min 2 min 0 W/m 29,3 km/h (5 Bft)
15.01.2015 19:26 8,9 C 6,7 C 89 % 997,8 hPa 0,0 l/m 0 min 2 min 0 W/m 29,3 km/h (5 Bft)
15.01.2015 19:28 8,9 C 6,7 C 89 % 997,8 hPa 0,0 l/m 0 min 2 min 0 W/m 39,7 km/h (6 Bft)
15.01.2015 19:30 8,9 C 6,7 C 89 % 997,9 hPa 0,0 l/m 0 min 0 min 0 W/m 39,7 km/h (6 Bft)
15.01.2015 19:32 8,9 C 6,7 C 89 % 997,7 hPa 0,0 l/m 0 min 0 min 0 W/m 54,4 km/h (7 Bft)
15.01.2015 19:34 8,9 C 6,7 C 90 % 997,8 hPa 0,0 l/m 0 min 0 min 0 W/m 39,7 km/h (6 Bft)
15.01.2015 19:36 8,9 C 6,7 C 90 % 997,8 hPa 0,0 l/m 0 min 0 min 0 W/m 37,7 km/h (5 Bft)
15.01.2015 19:38 8,9 C 6,7 C 90 % 997,8 hPa 0,0 l/m 0 min 0 min 0 W/m 35,6 km/h (5 Bft)
15.01.2015 19:40 9,0 C 6,7 C 90 % 997,9 hPa 0,0 l/m 0 min 0 min 0 W/m 31,4 km/h (5 Bft)
15.01.2015 19:42 9,0 C 6,7 C 90 % 997,9 hPa 0,0 l/m 0 min 0 min 0 W/m 20,9 km/h (4 Bft)
15.01.2015 19:44 9,1 C 6,7 C 90 % 998,0 hPa 0,0 l/m 0 min 0 min 0 W/m 25,1 km/h (4 Bft)
15.01.2015 19:46 9,1 C 6,7 C 90 % 998,0 hPa 0,0 l/m 0 min 0 min 0 W/m 25,1 km/h (4 Bft)
15.01.2015 19:48 9,1 C 6,7 C 90 % 998,0 hPa 0,0 l/m 0 min 0 min 0 W/m 25,1 km/h (4 Bft)
15.01.2015 19:50 9,1 C 6,7 C 90 % 998,0 hPa 0,0 l/m 0 min 0 min 0 W/m 29,3 km/h (5 Bft)
15.01.2015 19:52 9,1 C 6,7 C 89 % 998,1 hPa 0,0 l/m 0 min 0 min 0 W/m 43,9 km/h (6 Bft)
15.01.2015 19:54 9,1 C 6,7 C 89 % 998,1 hPa 0,0 l/m 0 min 0 min 0 W/m 35,6 km/h (5 Bft)
15.01.2015 19:56 9,1 C 7,2 C 89 % 998,1 hPa 0,0 l/m 0 min 0 min 0 W/m 37,7 km/h (5 Bft)
15.01.2015 19:58 9,1 C 6,7 C 89 % 998,2 hPa 0,0 l/m 0 min 0 min 0 W/m 25,1 km/h (4 Bft)
15.01.2015 20:00 9,1 C 6,7 C 89 % 998,1 hPa 0,0 l/m 0 min 0 min 0 W/m 33,5 km/h (5 Bft)
15.01.2015 20:02 9,1 C 6,7 C 88 % 998,2 hPa 0,0 l/m 0 min 0 min 0 W/m 41,8 km/h (6 Bft)
15.01.2015 20:04 9,1 C 6,7 C 88 % 998,2 hPa 0,0 l/m 0 min 0 min 0 W/m 31,4 km/h (5 Bft)
15.01.2015 20:06 9,1 C 6,7 C 88 % 998,3 hPa 0,0 l/m 0 min 0 min 0 W/m 29,3 km/h (5 Bft)
15.01.2015 20:08 9,0 C 6,7 C 88 % 998,3 hPa 0,0 l/m 0 min 0 min 0 W/m 31,4 km/h (5 Bft)
15.01.2015 20:10 9,0 C 6,7 C 88 % 998,2 hPa 0,0 l/m 0 min 0 min 0 W/m 25,1 km/h (4 Bft)
15.01.2015 20:12 9,0 C 6,7 C 88 % 998,2 hPa 0,0 l/m 0 min 0 min 0 W/m 29,3 km/h (5 Bft)
15.01.2015 20:14 9,0 C 6,7 C 87 % 998,2 hPa 0,0 l/m 0 min 0 min 0 W/m 20,9 km/h (4 Bft)
15.01.2015 20:16 9,0 C 6,7 C 87 % 998,3 hPa 0,0 l/m 0 min 0 min 0 W/m 35,6 km/h (5 Bft)
15.01.2015 20:18 8,9 C 6,7 C 87 % 998,2 hPa 0,0 l/m 0 min 0 min 0 W/m 33,5 km/h (5 Bft)
15.01.2015 20:20 9,0 C 6,7 C 87 % 998,2 hPa 0,0 l/m 0 min 0 min 0 W/m 25,1 km/h (4 Bft)
15.01.2015 20:22 8,9 C 6,7 C 86 % 998,2 hPa 0,0 l/m 0 min 0 min 0 W/m 33,5 km/h (5 Bft)
15.01.2015 20:24 8,9 C 7,2 C 86 % 998,3 hPa 0,0 l/m 0 min 0 min 0 W/m 20,9 km/h (4 Bft)
15.01.2015 20:26 8,9 C 7,2 C 86 % 998,2 hPa 0,0 l/m 0 min 0 min 0 W/m 27,2 km/h (4 Bft)
15.01.2015 20:28 8,9 C 7,2 C 86 % 998,4 hPa 0,0 l/m 0 min 0 min 0 W/m 29,3 km/h (5 Bft)
15.01.2015 20:30 8,9 C 7,2 C 86 % 998,3 hPa 0,0 l/m 0 min 0 min 0 W/m 29,3 km/h (5 Bft)
15.01.2015 20:32 8,9 C 7,2 C 86 % 998,4 hPa 0,0 l/m 0 min 0 min 0 W/m 23,0 km/h (4 Bft)
15.01.2015 20:34 8,9 C 7,2 C 86 % 998,4 hPa 0,0 l/m 0 min 0 min 0 W/m 18,8 km/h (3 Bft)
15.01.2015 20:36 8,9 C 6,7 C 86 % 998,3 hPa 0,0 l/m 0 min 0 min 0 W/m 25,1 km/h (4 Bft)
15.01.2015 20:38 8,9 C 6,7 C 85 % 998,4 hPa 0,0 l/m 0 min 0 min 0 W/m 33,5 km/h (5 Bft)
15.01.2015 20:40 8,9 C 6,7 C 85 % 998,4 hPa 0,0 l/m 0 min 0 min 0 W/m 20,9 km/h (4 Bft)
15.01.2015 20:42 8,9 C 6,7 C 85 % 998,5 hPa 0,0 l/m 0 min 0 min 0 W/m 25,1 km/h (4 Bft)
15.01.2015 20:44 8,9 C 6,7 C 85 % 998,5 hPa 0,0 l/m 0 min 0 min 0 W/m 27,2 km/h (4 Bft)
15.01.2015 20:46 8,8 C 6,7 C 85 % 998,5 hPa 0,0 l/m 0 min 0 min 0 W/m 27,2 km/h (4 Bft)
15.01.2015 20:48 8,8 C 6,7 C 86 % 998,4 hPa 0,0 l/m 0 min 0 min 0 W/m 37,7 km/h (5 Bft)
15.01.2015 20:50 8,8 C 6,7 C 86 % 998,4 hPa 0,0 l/m 0 min 0 min 0 W/m 18,8 km/h (3 Bft)
15.01.2015 20:52 8,8 C 6,7 C 86 % 998,4 hPa 0,0 l/m 0 min 0 min 0 W/m 23,0 km/h (4 Bft)
15.01.2015 20:54 8,8 C 7,2 C 86 % 998,4 hPa 0,0 l/m 0 min 2 min 0 W/m 37,7 km/h (5 Bft)
15.01.2015 20:56 8,8 C 6,7 C 86 % 998,6 hPa 0,0 l/m 0 min 2 min 0 W/m 29,3 km/h (5 Bft)
15.01.2015 20:58 8,8 C 6,7 C 86 % 998,6 hPa 0,0 l/m 0 min 2 min 0 W/m 31,4 km/h (5 Bft)
15.01.2015 21:00 8,8 C 6,7 C 86 % 998,7 hPa 0,0 l/m 0 min 2 min 0 W/m 23,0 km/h (4 Bft)
15.01.2015 21:02 8,8 C 6,7 C 86 % 998,7 hPa 0,0 l/m 0 min 2 min 0 W/m 33,5 km/h (5 Bft)
15.01.2015 21:04 8,8 C 6,1 C 87 % 998,8 hPa 0,2 l/m 0 min 2 min 0 W/m 27,2 km/h (4 Bft)
15.01.2015 21:06 8,8 C 6,1 C 87 % 999,0 hPa 0,2 l/m 0 min 2 min 0 W/m 20,9 km/h (4 Bft)
15.01.2015 21:08 8,8 C 6,1 C 87 % 999,2 hPa 0,2 l/m 0 min 2 min 0 W/m 37,7 km/h (5 Bft)
15.01.2015 21:10 8,7 C 6,1 C 87 % 999,6 hPa 0,2 l/m 0 min 2 min 0 W/m 31,4 km/h (5 Bft)
15.01.2015 21:12 8,6 C 5,6 C 87 % 999,6 hPa 0,0 l/m 0 min 2 min 0 W/m 35,6 km/h (5 Bft)
15.01.2015 21:14 8,4 C 5,6 C 87 % 999,6 hPa 0,0 l/m 0 min 2 min 0 W/m 29,3 km/h (5 Bft)
15.01.2015 21:16 8,2 C 5,0 C 87 % 999,6 hPa 0,0 l/m 0 min 2 min 0 W/m 41,8 km/h (6 Bft)
15.01.2015 21:18 8,1 C 5,0 C 87 % 999,6 hPa 0,2 l/m 0 min 2 min 0 W/m 37,7 km/h (5 Bft)
15.01.2015 21:20 7,9 C 5,0 C 87 % 999,7 hPa 0,0 l/m 0 min 2 min 0 W/m 41,8 km/h (6 Bft)
15.01.2015 21:22 7,7 C 5,0 C 87 % 999,6 hPa 0,0 l/m 0 min 2 min 0 W/m 35,6 km/h (5 Bft)
15.01.2015 21:24 7,5 C 5,0 C 88 % 999,7 hPa 0,0 l/m 0 min 2 min 0 W/m 35,6 km/h (5 Bft)
15.01.2015 21:26 7,4 C 5,0 C 88 % 999,6 hPa 0,0 l/m 0 min 2 min 0 W/m 35,6 km/h (5 Bft)
15.01.2015 21:28 7,3 C 5,0 C 88 % 999,5 hPa 0,0 l/m 0 min 2 min 0 W/m 35,6 km/h (5 Bft)
15.01.2015 21:30 7,2 C 5,0 C 88 % 999,3 hPa 0,0 l/m 0 min 2 min 0 W/m 35,6 km/h (5 Bft)
15.01.2015 21:32 7,1 C 5,0 C 88 % 999,3 hPa 0,0 l/m 0 min 2 min 0 W/m 37,7 km/h (5 Bft)
15.01.2015 21:34 7,1 C 5,0 C 88 % 999,4 hPa 0,0 l/m 0 min 2 min 0 W/m 25,1 km/h (4 Bft)
15.01.2015 21:36 7,1 C 5,0 C 89 % 999,2 hPa 0,2 l/m 0 min 2 min 0 W/m 20,9 km/h (4 Bft)
15.01.2015 21:38 7,0 C 4,4 C 89 % 999,2 hPa 0,0 l/m 0 min 2 min 0 W/m 27,2 km/h (4 Bft)
15.01.2015 21:40 6,9 C 4,4 C 89 % 999,2 hPa 0,0 l/m 0 min 2 min 0 W/m 31,4 km/h (5 Bft)
15.01.2015 21:42 6,9 C 4,4 C 89 % 999,2 hPa 0,0 l/m 0 min 2 min 0 W/m 33,5 km/h (5 Bft)
15.01.2015 21:44 6,9 C 4,4 C 89 % 999,3 hPa 0,0 l/m 0 min 2 min 0 W/m 27,2 km/h (4 Bft)
15.01.2015 21:46 6,9 C 4,4 C 89 % 999,3 hPa 0,0 l/m 0 min 2 min 0 W/m 31,4 km/h (5 Bft)
15.01.2015 21:48 6,8 C 4,4 C 89 % 999,4 hPa 0,0 l/m 0 min 2 min 0 W/m 16,7 km/h (3 Bft)
15.01.2015 21:50 6,8 C 4,4 C 89 % 999,3 hPa 0,0 l/m 0 min 2 min 0 W/m 18,8 km/h (3 Bft)
15.01.2015 21:52 6,8 C 4,4 C 89 % 999,4 hPa 0,0 l/m 0 min 2 min 0 W/m 18,8 km/h (3 Bft)
15.01.2015 21:54 6,8 C 4,4 C 89 % 999,5 hPa 0,0 l/m 0 min 2 min 0 W/m 25,1 km/h (4 Bft)
15.01.2015 21:56 6,8 C 4,4 C 89 % 999,5 hPa 0,0 l/m 0 min 0 min 0 W/m 25,1 km/h (4 Bft)
15.01.2015 21:58 6,8 C 4,4 C 89 % 999,5 hPa 0,0 l/m 0 min 0 min 0 W/m 27,2 km/h (4 Bft)
15.01.2015 22:00 6,8 C 4,4 C 89 % 999,6 hPa 0,0 l/m 0 min 0 min 0 W/m 25,1 km/h (4 Bft)
15.01.2015 22:02 6,8 C 4,4 C 89 % 999,5 hPa 0,0 l/m 0 min 0 min 0 W/m 27,2 km/h (4 Bft)
15.01.2015 22:04 6,8 C 4,4 C 89 % 999,7 hPa 0,0 l/m 0 min 0 min 0 W/m 20,9 km/h (4 Bft)
15.01.2015 22:06 6,7 C 4,4 C 89 % 999,7 hPa 0,0 l/m 0 min 0 min 0 W/m 18,8 km/h (3 Bft)
15.01.2015 22:08 6,7 C 4,4 C 89 % 999,7 hPa 0,0 l/m 0 min 0 min 0 W/m 18,8 km/h (3 Bft)
15.01.2015 22:10 6,8 C 4,4 C 89 % 999,7 hPa 0,0 l/m 0 min 0 min 0 W/m 16,7 km/h (3 Bft)
15.01.2015 22:12 6,7 C 4,4 C 89 % 999,7 hPa 0,0 l/m 0 min 0 min 0 W/m 29,3 km/h (5 Bft)
15.01.2015 22:14 6,7 C 4,4 C 89 % 999,8 hPa 0,0 l/m 0 min 0 min 0 W/m 35,6 km/h (5 Bft)
15.01.2015 22:16 6,8 C 4,4 C 89 % 999,8 hPa 0,0 l/m 0 min 0 min 0 W/m 29,3 km/h (5 Bft)
15.01.2015 22:18 6,8 C 4,4 C 89 % 999,8 hPa 0,0 l/m 0 min 0 min 0 W/m 20,9 km/h (4 Bft)
15.01.2015 22:20 6,8 C 4,4 C 89 % 999,8 hPa 0,0 l/m 0 min 0 min 0 W/m 20,9 km/h (4 Bft)
15.01.2015 22:22 6,8 C 4,4 C 88 % 999,7 hPa 0,0 l/m 0 min 0 min 0 W/m 25,1 km/h (4 Bft)
15.01.2015 22:24 6,8 C 4,4 C 88 % 999,9 hPa 0,0 l/m 0 min 0 min 0 W/m 35,6 km/h (5 Bft)
15.01.2015 22:26 6,8 C 4,4 C 88 % 999,9 hPa 0,0 l/m 0 min 0 min 0 W/m 16,7 km/h (3 Bft)
15.01.2015 22:28 6,8 C 4,4 C 88 % 1000,0 hPa 0,0 l/m 0 min 0 min 0 W/m 25,1 km/h (4 Bft)
15.01.2015 22:30 6,8 C 4,4 C 87 % 999,9 hPa 0,0 l/m 0 min 0 min 0 W/m 16,7 km/h (3 Bft)
15.01.2015 22:32 6,8 C 4,4 C 87 % 999,9 hPa 0,0 l/m 0 min 0 min 0 W/m 29,3 km/h (5 Bft)
15.01.2015 22:34 6,8 C 4,4 C 87 % 1000,0 hPa 0,0 l/m 0 min 0 min 0 W/m 25,1 km/h (4 Bft)
15.01.2015 22:36 6,9 C 4,4 C 87 % 1000,0 hPa 0,0 l/m 0 min 0 min 0 W/m 23,0 km/h (4 Bft)
15.01.2015 22:38 6,9 C 4,4 C 87 % 1000,0 hPa 0,0 l/m 0 min 0 min 0 W/m 25,1 km/h (4 Bft)
15.01.2015 22:40 6,9 C 4,4 C 87 % 1000,1 hPa 0,0 l/m 0 min 0 min 0 W/m 20,9 km/h (4 Bft)
15.01.2015 22:42 6,9 C 4,4 C 87 % 1000,3 hPa 0,0 l/m 0 min 0 min 0 W/m 33,5 km/h (5 Bft)
15.01.2015 22:44 6,9 C 4,4 C 87 % 1000,3 hPa 0,0 l/m 0 min 0 min 0 W/m 29,3 km/h (5 Bft)
15.01.2015 22:46 6,9 C 4,4 C 87 % 1000,3 hPa 0,0 l/m 0 min 0 min 0 W/m 25,1 km/h (4 Bft)
15.01.2015 22:48 6,9 C 4,4 C 86 % 1000,3 hPa 0,0 l/m 0 min 0 min 0 W/m 25,1 km/h (4 Bft)
15.01.2015 22:50 6,9 C 4,4 C 86 % 1000,3 hPa 0,0 l/m 0 min 0 min 0 W/m 25,1 km/h (4 Bft)
15.01.2015 22:52 6,9 C 4,4 C 86 % 1000,3 hPa 0,0 l/m 0 min 0 min 0 W/m 29,3 km/h (5 Bft)
15.01.2015 22:54 6,9 C 4,4 C 86 % 1000,5 hPa 0,0 l/m 0 min 0 min 0 W/m 23,0 km/h (4 Bft)
15.01.2015 22:56 6,9 C 4,4 C 86 % 1000,5 hPa 0,0 l/m 0 min 0 min 0 W/m 18,8 km/h (3 Bft)
15.01.2015 22:58 6,9 C 4,4 C 86 % 1000,6 hPa 0,0 l/m 0 min 0 min 0 W/m 25,1 km/h (4 Bft)
15.01.2015 23:00 6,9 C 4,4 C 86 % 1000,6 hPa 0,0 l/m 0 min 0 min 0 W/m 29,3 km/h (5 Bft)
15.01.2015 23:02 6,9 C 4,4 C 86 % 1000,6 hPa 0,0 l/m 0 min 0 min 0 W/m 20,9 km/h (4 Bft)
15.01.2015 23:04 6,9 C 4,4 C 86 % 1000,6 hPa 0,0 l/m 0 min 0 min 0 W/m 23,0 km/h (4 Bft)
15.01.2015 23:06 6,9 C 4,4 C 86 % 1000,7 hPa 0,0 l/m 0 min 0 min 0 W/m 18,8 km/h (3 Bft)
15.01.2015 23:08 6,9 C 4,4 C 86 % 1000,7 hPa 0,0 l/m 0 min 0 min 0 W/m 14,6 km/h (3 Bft)
15.01.2015 23:10 6,9 C 4,4 C 86 % 1000,7 hPa 0,0 l/m 0 min 0 min 0 W/m 20,9 km/h (4 Bft)
15.01.2015 23:12 6,9 C 4,4 C 86 % 1000,7 hPa 0,0 l/m 0 min 0 min 0 W/m 18,8 km/h (3 Bft)
15.01.2015 23:14 6,9 C 4,4 C 86 % 1000,7 hPa 0,0 l/m 0 min 0 min 0 W/m 25,1 km/h (4 Bft)
15.01.2015 23:16 6,9 C 4,4 C 86 % 1000,7 hPa 0,0 l/m 0 min 0 min 0 W/m 23,0 km/h (4 Bft)
15.01.2015 23:18 6,9 C 4,4 C 86 % 1000,7 hPa 0,0 l/m 0 min 0 min 0 W/m 18,8 km/h (3 Bft)
15.01.2015 23:20 6,9 C 4,4 C 86 % 1000,7 hPa 0,0 l/m 0 min 0 min 0 W/m 23,0 km/h (4 Bft)
15.01.2015 23:22 6,9 C 4,4 C 86 % 1000,8 hPa 0,0 l/m 0 min 0 min 0 W/m 25,1 km/h (4 Bft)
15.01.2015 23:24 6,9 C 4,4 C 86 % 1000,8 hPa 0,0 l/m 0 min 0 min 0 W/m 16,7 km/h (3 Bft)
15.01.2015 23:26 6,9 C 4,4 C 86 % 1000,9 hPa 0,0 l/m 0 min 0 min 0 W/m 18,8 km/h (3 Bft)
15.01.2015 23:28 7,0 C 4,4 C 86 % 1000,9 hPa 0,0 l/m 0 min 0 min 0 W/m 25,1 km/h (4 Bft)
15.01.2015 23:30 7,0 C 4,4 C 86 % 1001,0 hPa 0,0 l/m 0 min 0 min 0 W/m 23,0 km/h (4 Bft)
15.01.2015 23:32 7,0 C 4,4 C 87 % 1001,0 hPa 0,0 l/m 0 min 0 min 0 W/m 14,6 km/h (3 Bft)
15.01.2015 23:34 7,0 C 4,4 C 87 % 1001,0 hPa 0,0 l/m 0 min 0 min 0 W/m 25,1 km/h (4 Bft)
15.01.2015 23:36 7,0 C 4,4 C 87 % 1000,9 hPa 0,0 l/m 0 min 0 min 0 W/m 25,1 km/h (4 Bft)
15.01.2015 23:38 7,0 C 4,4 C 87 % 1000,9 hPa 0,0 l/m 0 min 0 min 0 W/m 37,7 km/h (5 Bft)
15.01.2015 23:40 7,0 C 5,0 C 87 % 1000,8 hPa 0,0 l/m 0 min 0 min 0 W/m 29,3 km/h (5 Bft)
15.01.2015 23:42 7,0 C 4,4 C 87 % 1000,8 hPa 0,0 l/m 0 min 0 min 0 W/m 29,3 km/h (5 Bft)
15.01.2015 23:44 7,1 C 5,0 C 87 % 1000,9 hPa 0,0 l/m 0 min 0 min 0 W/m 37,7 km/h (5 Bft)
15.01.2015 23:46 7,1 C 5,0 C 87 % 1000,9 hPa 0,0 l/m 0 min 0 min 0 W/m 31,4 km/h (5 Bft)
15.01.2015 23:48 7,1 C 4,4 C 87 % 1001,0 hPa 0,0 l/m 0 min 0 min 0 W/m 25,1 km/h (4 Bft)
15.01.2015 23:50 7,1 C 4,4 C 87 % 1001,0 hPa 0,0 l/m 0 min 0 min 0 W/m 33,5 km/h (5 Bft)
15.01.2015 23:52 7,1 C 4,4 C 87 % 1001,0 hPa 0,0 l/m 0 min 0 min 0 W/m 29,3 km/h (5 Bft)
15.01.2015 23:54 7,1 C 4,4 C 87 % 1001,0 hPa 0,0 l/m 0 min 0 min 0 W/m 33,5 km/h (5 Bft)
15.01.2015 23:56 7,1 C 4,4 C 87 % 1001,0 hPa 0,0 l/m 0 min 0 min 0 W/m 23,0 km/h (4 Bft)
15.01.2015 23:58 7,1 C 4,4 C 87 % 1001,0 hPa 0,0 l/m 0 min 0 min 0 W/m 23,0 km/h (4 Bft)
_ Min-Zeit 00:54 00:54 15:22 15:18 - - - - 00:24
Minimum _ 4,0 C 2,2 C 74 % 995,8 hPa - - - - 14,6 km/h (3 Bft)
_ Max-Zeit 15:22 14:34 04:56 00:00 03:52 14:24 03:50 14:28 14:32
Maximum _ 11,1 C 9,4 C 92 % 1010,9 hPa 0,2 l/m 2 min 2 min 144 W/m 77,8 km/h
SW (9 Bft)
Durchschnitt _ 8,4 C 6,3 C 85 % 1000,3 hPa #3,4 l/m #12 min. #9:08 h 44 W/m 34,2 km/h (5 Bft)
© 2015 W. Hausmann